Bel Air, Maryland - USA |
Yesterday's Data File |
5/8/26
Time Wind Dir Wind Spd Wind Gust Hum In Humidity Temp In Temp Raw Barom Wind Chill Press Alt Cloud Base Dens Alt Temp Out R DailyRain 24HrRain RainRate
� mph mph % % �F �F in �F ft ft ft �F/hr in in in/hr
12:00am 238 1 4 41 80 73.8 52.9 29.27 52.9 605 1498 363 -1.08 0.00 0.11 0.000
12:01am 238 1 1 41 80 73.8 52.8 29.27 52.8 604 1497 355 -1.16 0.00 0.11 0.000
12:02am 238 2 2 41 80 73.8 52.8 29.27 52.8 603 1497 354 -1.14 0.00 0.11 0.000
12:03am 238 0 2 41 80 73.8 52.8 29.27 52.8 604 1497 355 -1.13 0.00 0.11 0.000
12:04am 238 0 2 41 80 73.8 52.7 29.27 52.7 603 1497 348 -1.21 0.00 0.11 0.000
12:05am 238 2 2 41 80 73.8 52.7 29.27 52.7 602 1497 346 -1.19 0.00 0.11 0.000
12:06am 238 1 2 41 80 73.8 52.6 29.27 52.6 602 1496 340 -1.26 0.00 0.11 0.000
12:07am 238 0 2 41 80 73.8 52.6 29.27 52.6 602 1496 340 -1.24 0.00 0.11 0.000
12:08am 238 0 2 41 80 73.8 52.5 29.27 52.5 602 1495 333 -1.32 0.00 0.11 0.000
12:09am 238 0 2 41 80 73.8 52.5 29.28 52.5 601 1495 332 -1.30 0.00 0.11 0.000
12:10am 238 0 2 41 80 73.8 52.5 29.27 52.5 602 1495 333 -1.28 0.00 0.11 0.000
12:11am 238 0 0 41 81 73.8 52.4 29.27 52.4 602 1413 326 -1.36 0.00 0.11 0.000
12:12am 238 0 0 41 81 73.8 52.3 29.28 52.3 600 1412 317 -1.44 0.00 0.11 0.000
12:13am 238 0 0 41 81 73.8 52.4 29.28 52.4 599 1413 323 -1.31 0.00 0.11 0.000
12:14am 238 0 0 41 81 73.8 52.4 29.28 52.4 600 1413 324 -1.29 0.00 0.11 0.000
12:15am 238 0 0 41 81 73.8 52.3 29.28 52.3 599 1412 316 -1.37 0.00 0.11 0.000
12:16am 238 0 0 41 82 73.8 52.3 29.28 52.3 598 1331 315 -1.34 0.00 0.11 0.000
12:17am 238 0 0 41 82 73.8 52.2 29.28 52.2 599 1330 310 -1.42 0.00 0.11 0.000
12:18am 238 0 0 41 82 73.8 52.2 29.28 52.2 599 1330 310 -1.40 0.00 0.11 0.000
12:19am 238 0 0 41 82 73.8 52.2 29.28 52.2 599 1330 310 -1.38 0.00 0.11 0.000
12:20am 238 0 0 41 82 73.8 52.1 29.28 52.1 599 1330 303 -1.45 0.00 0.11 0.000
12:21am 238 0 0 41 82 73.8 52.0 29.28 52.0 597 1329 294 -1.53 0.00 0.11 0.000
12:22am 238 0 0 41 82 73.8 52.0 29.28 52.0 598 1329 295 -1.50 0.00 0.11 0.000
12:23am 238 0 0 41 82 73.8 52.0 29.28 52.0 598 1329 295 -1.48 0.00 0.11 0.000
12:24am 238 0 0 41 82 73.8 52.0 29.28 52.0 599 1329 296 -1.45 0.00 0.11 0.000
12:25am 238 0 0 41 82 73.8 51.9 29.28 51.9 598 1328 289 -1.53 0.00 0.11 0.000
12:26am 238 0 0 41 82 73.8 51.9 29.28 51.9 597 1328 287 -1.51 0.00 0.11 0.000
12:27am 238 0 0 41 82 73.8 51.8 29.28 51.8 598 1328 282 -1.58 0.00 0.11 0.000
12:28am 238 0 0 41 82 73.8 51.8 29.28 51.8 598 1328 282 -1.55 0.00 0.11 0.000
12:29am 238 0 0 41 82 73.8 51.8 29.28 51.8 598 1328 282 -1.53 0.00 0.11 0.000
12:30am 238 0 0 41 82 73.8 51.7 29.28 51.7 598 1327 275 -1.60 0.00 0.11 0.000
12:31am 238 0 0 41 82 73.8 51.7 29.28 51.7 597 1327 274 -1.57 0.00 0.11 0.000
12:32am 238 0 0 41 82 73.8 51.7 29.28 51.7 598 1327 275 -1.55 0.00 0.11 0.000
12:33am 238 0 0 41 83 73.8 51.6 29.28 51.6 596 1246 266 -1.62 0.00 0.11 0.000
12:34am 238 0 0 41 83 73.8 51.6 29.28 51.6 596 1246 266 -1.60 0.00 0.11 0.000
12:35am 238 0 0 41 83 73.8 51.6 29.28 51.6 596 1246 266 -1.57 0.00 0.11 0.000
12:36am 238 0 0 41 83 73.8 51.5 29.28 51.5 596 1246 260 -1.64 0.00 0.11 0.000
12:37am 238 0 0 41 83 73.8 51.5 29.28 51.5 596 1246 258 -1.62 0.00 0.11 0.000
12:38am 238 0 0 41 83 73.8 51.5 29.28 51.5 595 1246 257 -1.59 0.00 0.11 0.000
12:39am 238 0 0 41 83 73.8 51.5 29.28 51.5 595 1246 257 -1.56 0.00 0.11 0.000
12:40am 238 0 0 41 83 73.8 51.4 29.28 51.4 595 1245 251 -1.64 0.00 0.11 0.000
12:41am 238 0 0 41 83 73.8 51.3 29.28 51.3 595 1245 244 -1.71 0.00 0.10 0.000
12:42am 238 0 0 41 83 73.8 51.3 29.28 51.3 595 1245 244 -1.68 0.00 0.10 0.000
12:43am 238 0 0 41 83 73.8 51.3 29.28 51.3 595 1245 244 -1.65 0.00 0.10 0.000
12:44am 238 0 0 41 83 73.8 51.3 29.28 51.3 595 1245 244 -1.62 0.00 0.10 0.000
12:45am 238 0 0 41 83 73.8 51.2 29.28 51.2 594 1244 236 -1.70 0.00 0.10 0.000
12:46am 238 0 0 41 83 73.8 51.2 29.28 51.2 594 1244 236 -1.67 0.00 0.08 0.000
12:47am 238 0 0 41 83 73.8 51.2 29.28 51.2 594 1244 236 -1.64 0.00 0.08 0.000
12:48am 238 0 0 41 83 73.8 51.1 29.28 51.1 594 1244 229 -1.71 0.00 0.08 0.000
12:49am 238 0 0 41 83 73.8 51.1 29.28 51.1 594 1244 229 -1.69 0.00 0.08 0.000
12:50am 238 0 0 41 83 73.8 51.0 29.28 51.0 594 1243 223 -1.76 0.00 0.08 0.000
12:51am 238 0 0 41 83 73.8 51.0 29.28 51.0 594 1243 223 -1.73 0.00 0.08 0.000
12:52am 238 0 0 41 84 73.8 51.0 29.28 51.0 594 1164 223 -1.70 0.00 0.08 0.000
12:53am 238 0 0 41 84 73.8 51.0 29.28 51.0 593 1164 222 -1.67 0.00 0.08 0.000
12:54am 238 0 0 41 84 73.8 51.0 29.28 51.0 593 1164 222 -1.65 0.00 0.08 0.000
12:55am 238 0 0 41 84 73.8 50.9 29.28 50.9 593 1164 215 -1.72 0.00 0.08 0.000
12:56am 238 0 0 41 84 73.8 50.9 29.28 50.9 593 1164 215 -1.69 0.00 0.08 0.000
12:57am 238 0 0 41 84 73.8 50.8 29.28 50.8 593 1163 208 -1.76 0.00 0.08 0.000
12:58am 238 0 0 41 84 73.8 50.8 29.28 50.8 593 1163 208 -1.73 0.00 0.08 0.000
12:59am 238 0 0 41 84 73.8 50.8 29.29 50.8 592 1163 207 -1.70 0.00 0.08 0.000
1:00am 238 0 0 41 84 73.8 50.8 29.29 50.8 592 1163 207 -1.67 0.00 0.08 0.000
1:01am 238 0 0 41 84 73.8 50.8 29.29 50.8 592 1163 207 -1.65 0.00 0.08 0.000
1:02am 238 0 0 41 84 73.8 50.7 29.29 50.7 592 1163 200 -1.72 0.00 0.08 0.000
1:03am 238 0 0 41 84 73.8 50.7 29.29 50.7 592 1163 200 -1.69 0.00 0.08 0.000
1:04am 238 0 0 41 84 73.8 50.6 29.29 50.6 592 1162 194 -1.76 0.00 0.08 0.000
1:05am 238 0 0 41 84 73.8 50.6 29.29 50.6 592 1162 194 -1.73 0.00 0.08 0.000
1:06am 238 0 0 41 84 73.8 50.6 29.29 50.6 591 1162 193 -1.70 0.00 0.08 0.000
1:07am 238 0 0 41 84 73.8 50.5 29.29 50.5 591 1162 186 -1.77 0.00 0.08 0.000
1:08am 238 0 0 43 85 73.8 50.5 29.29 50.5 590 1083 185 -1.74 0.00 0.08 0.000
1:09am 238 0 0 41 85 73.8 50.5 29.29 50.5 590 1083 185 -1.72 0.00 0.08 0.000
1:10am 238 0 0 41 85 73.8 50.5 29.29 50.5 590 1083 185 -1.69 0.00 0.08 0.000
1:11am 238 0 0 41 85 73.8 50.5 29.29 50.5 590 1083 185 -1.66 0.00 0.08 0.000
1:12am 238 0 0 41 85 73.8 50.5 29.29 50.5 590 1083 185 -1.63 0.00 0.08 0.000
1:13am 238 0 0 41 85 73.8 50.4 29.29 50.4 587 1083 175 -1.70 0.00 0.08 0.000
1:14am 238 0 0 41 85 73.8 50.4 29.29 50.4 588 1083 176 -1.67 0.00 0.08 0.000
1:15am 238 0 0 41 85 73.8 50.4 29.29 50.4 588 1083 176 -1.65 0.00 0.08 0.000
1:16am 238 0 0 41 85 73.8 50.4 29.29 50.4 589 1083 177 -1.62 0.00 0.08 0.000
1:17am 238 0 0 41 85 73.8 50.4 29.29 50.4 589 1083 177 -1.59 0.00 0.08 0.000
1:18am 238 0 0 41 85 73.8 50.3 29.29 50.3 588 1082 169 -1.67 0.00 0.08 0.000
1:19am 238 0 0 41 85 73.8 50.3 29.29 50.3 588 1082 169 -1.64 0.00 0.08 0.000
1:20am 238 0 0 41 85 73.8 50.3 29.29 50.3 587 1082 168 -1.61 0.00 0.08 0.000
1:21am 238 0 0 41 85 73.8 50.3 29.29 50.3 587 1082 168 -1.59 0.00 0.07 0.000
1:22am 238 0 0 41 85 73.8 50.3 29.29 50.3 587 1082 168 -1.56 0.00 0.07 0.000
1:23am 238 0 0 41 85 73.8 50.3 29.29 50.3 588 1082 169 -1.54 0.00 0.07 0.000
1:24am 199 0 0 41 85 73.8 50.3 29.29 50.3 589 1082 170 -1.51 0.00 0.07 0.000
1:25am 199 0 0 41 85 73.8 50.3 29.29 50.3 588 1082 169 -1.49 0.00 0.07 0.000
1:26am 199 0 0 41 85 73.8 50.3 29.29 50.3 586 1082 167 -1.46 0.00 0.07 0.000
1:27am 199 0 0 43 85 73.8 50.3 29.29 50.3 587 1082 168 -1.44 0.00 0.07 0.000
1:28am 199 0 0 41 86 73.8 50.3 29.29 50.3 586 1005 167 -1.41 0.00 0.07 0.000
1:29am 199 0 0 41 86 73.8 50.3 29.29 50.3 586 1005 167 -1.39 0.00 0.07 0.000
1:30am 199 0 0 41 86 73.8 50.3 29.29 50.3 587 1005 168 -1.37 0.00 0.07 0.000
1:31am 258 2 2 41 86 73.8 50.3 29.29 50.3 584 1005 165 -1.35 0.00 0.06 0.000
1:32am 171 2 2 41 86 73.8 50.3 29.29 50.3 584 1005 165 -1.32 0.00 0.06 0.000
1:33am 172 1 2 41 86 74.0 50.3 29.29 50.3 584 1005 163 -1.30 0.00 0.06 0.000
1:34am 172 2 2 41 86 74.0 50.3 29.29 50.3 584 1005 163 -1.28 0.00 0.06 0.000
1:35am 172 2 2 41 86 74.0 50.3 29.30 50.3 582 1005 161 -1.26 0.00 0.06 0.000
1:36am 172 2 2 41 86 74.0 50.3 29.30 50.3 583 1005 162 -1.24 0.00 0.06 0.000
1:37am 172 1 3 41 86 74.0 50.4 29.30 50.4 581 1006 167 -1.12 0.00 0.06 0.000
1:38am 172 0 3 41 86 74.0 50.4 29.30 50.4 581 1006 167 -1.10 0.00 0.06 0.000
1:39am 172 0 3 41 86 74.0 50.3 29.30 50.3 580 1005 159 -1.18 0.00 0.06 0.000
1:40am 172 1 3 41 86 74.0 50.4 29.30 50.4 579 1006 164 -1.06 0.00 0.06 0.000
1:41am 172 1 1 41 86 74.0 50.3 29.30 50.3 579 1005 158 -1.14 0.00 0.06 0.000
1:42am 172 2 2 41 86 74.0 50.3 29.30 50.3 578 1005 157 -1.12 0.00 0.06 0.000
1:43am 172 0 2 41 86 74.0 50.3 29.30 50.3 578 1005 157 -1.11 0.00 0.06 0.000
1:44am 172 1 3 41 85 74.0 50.3 29.30 50.3 578 1082 157 -1.09 0.00 0.06 0.000
1:45am 172 2 3 41 85 74.0 50.3 29.30 50.3 578 1082 157 -1.07 0.00 0.06 0.000
1:46am 172 0 2 41 85 74.0 50.3 29.30 50.3 578 1082 157 -1.05 0.00 0.06 0.000
1:47am 172 1 2 41 85 74.0 50.3 29.30 50.3 578 1082 157 -1.03 0.00 0.06 0.000
1:48am 172 2 2 41 86 74.0 50.3 29.30 50.3 578 1005 157 -1.02 0.00 0.06 0.000
1:49am 172 1 2 41 85 74.0 50.3 29.30 50.3 578 1082 157 -1.00 0.00 0.06 0.000
1:50am 167 2 3 41 85 74.0 50.3 29.30 50.3 578 1082 157 -0.98 0.00 0.06 0.000
1:51am 320 2 3 41 85 74.0 50.3 29.30 50.3 577 1082 155 -0.97 0.00 0.06 0.000
1:52am 283 1 3 41 84 74.0 50.3 29.30 50.3 578 1161 157 -0.95 0.00 0.06 0.000
1:53am 283 0 3 41 84 74.0 50.3 29.30 50.3 577 1161 155 -0.94 0.00 0.06 0.000
1:54am 321 2 3 41 84 74.0 50.2 29.30 50.2 576 1160 148 -1.02 0.00 0.06 0.000
1:55am 321 0 3 41 84 74.0 50.3 29.30 50.3 577 1161 155 -0.90 0.00 0.06 0.000
1:56am 321 2 3 41 84 74.0 50.3 29.30 50.3 577 1161 155 -0.89 0.00 0.05 0.000
1:57am 321 1 3 41 84 74.0 50.3 29.30 50.3 577 1161 155 -0.87 0.00 0.05 0.000
1:58am 350 0 3 41 84 74.0 50.3 29.30 50.3 577 1161 155 -0.86 0.00 0.05 0.000
1:59am 7 3 3 41 83 74.0 50.3 29.30 50.0 575 1239 153 -0.85 0.00 0.05 0.000
2:00am 300 3 3 41 83 74.0 50.4 29.30 50.1 575 1240 160 -0.73 0.00 0.05 0.000
2:01am 300 0 3 41 83 74.0 50.4 29.30 50.4 575 1240 160 -0.72 0.00 0.05 0.000
2:02am 300 0 3 41 83 74.0 50.5 29.30 50.5 574 1241 165 -0.61 0.00 0.05 0.000
2:03am 18 1 3 41 83 74.0 50.5 29.30 50.5 575 1241 166 -0.60 0.00 0.05 0.000
2:04am 341 1 3 41 82 74.0 50.5 29.31 50.5 573 1320 164 -0.59 0.00 0.05 0.000
2:05am 341 2 3 41 82 74.0 50.5 29.31 50.5 573 1320 164 -0.58 0.00 0.05 0.000
2:06am 341 1 2 41 82 74.0 50.5 29.31 50.5 571 1320 161 -0.57 0.00 0.05 0.000
2:07am 266 0 2 41 82 74.0 50.5 29.31 50.5 573 1320 164 -0.56 0.00 0.05 0.000
2:08am 266 0 2 41 82 74.0 50.5 29.31 50.5 573 1320 164 -0.55 0.00 0.05 0.000
2:09am 266 0 2 41 81 74.0 50.5 29.31 50.5 572 1401 163 -0.54 0.00 0.05 0.000
2:10am 129 1 2 41 82 74.0 50.5 29.31 50.5 572 1320 162 -0.53 0.00 0.05 0.000
2:11am 129 1 2 41 82 74.0 50.5 29.31 50.5 571 1320 161 -0.52 0.00 0.05 0.000
2:12am 130 1 3 41 82 74.0 50.5 29.31 50.5 569 1320 158 -0.51 0.00 0.05 0.000
2:13am 125 0 3 41 81 74.0 50.5 29.31 50.5 569 1401 158 -0.51 0.00 0.05 0.000
2:14am 125 0 3 41 81 74.0 50.5 29.31 50.5 569 1401 158 -0.50 0.00 0.05 0.000
2:15am 125 0 3 41 81 74.0 50.5 29.31 50.5 568 1401 157 -0.49 0.00 0.05 0.000
2:16am 125 0 0 41 81 74.0 50.5 29.31 50.5 568 1401 157 -0.48 0.00 0.05 0.000
2:17am 125 1 1 41 81 74.0 50.5 29.31 50.5 566 1401 155 -0.47 0.00 0.05 0.000
2:18am 125 0 2 41 80 74.0 50.5 29.31 50.5 567 1482 156 -0.47 0.00 0.05 0.000
2:19am 317 4 4 41 81 74.0 50.5 29.31 49.4 568 1401 157 -0.46 0.00 0.05 0.000
2:20am 6 0 4 41 80 74.0 50.5 29.31 50.5 566 1482 155 -0.45 0.00 0.05 0.000
2:21am 4 3 3 41 81 74.0 50.5 29.31 50.2 565 1401 154 -0.44 0.00 0.05 0.000
2:22am 74 4 4 41 80 74.0 50.5 29.31 49.4 566 1482 155 -0.43 0.00 0.05 0.000
2:23am 339 0 4 41 79 74.0 50.5 29.31 50.5 567 1565 156 -0.43 0.00 0.05 0.000
2:24am 339 0 4 41 79 74.0 50.5 29.31 50.5 565 1565 154 -0.42 0.00 0.05 0.000
2:25am 339 0 4 41 80 74.0 50.5 29.31 50.5 566 1482 155 -0.41 0.00 0.05 0.000
2:26am 347 2 2 41 80 74.0 50.5 29.31 50.5 566 1482 155 -0.41 0.00 0.04 0.000
2:27am 199 1 4 41 80 74.0 50.4 29.31 50.4 565 1482 147 -0.50 0.00 0.04 0.000
2:28am 199 0 4 41 79 74.0 50.5 29.31 50.5 565 1565 154 -0.39 0.00 0.04 0.000
2:29am 199 0 4 41 79 74.0 50.3 29.32 50.3 564 1564 139 -0.58 0.00 0.04 0.000
2:30am 199 2 4 41 79 74.0 50.4 29.32 50.4 564 1564 146 -0.47 0.00 0.04 0.000
2:31am 199 2 2 41 79 74.0 50.4 29.32 50.4 562 1564 144 -0.47 0.00 0.04 0.000
2:32am 58 3 8 41 79 74.0 50.4 29.32 50.1 562 1564 144 -0.46 0.00 0.04 0.000
2:33am 56 1 8 41 77 74.0 50.4 29.32 50.4 562 1732 144 -0.45 0.00 0.04 0.000
2:34am 52 1 8 41 78 74.0 50.4 29.32 50.4 562 1648 144 -0.44 0.00 0.04 0.000
2:35am 51 2 8 41 78 74.0 50.4 29.32 50.4 562 1648 144 -0.43 0.00 0.04 0.000
2:36am 14 1 4 41 78 74.0 50.4 29.32 50.4 562 1648 144 -0.43 0.00 0.04 0.000
2:37am 12 1 4 41 77 74.0 50.4 29.32 50.4 562 1732 144 -0.42 0.00 0.04 0.000
2:38am 360 3 6 41 78 74.0 50.4 29.32 50.1 562 1648 144 -0.41 0.00 0.04 0.000
2:39am 360 1 6 41 77 74.0 50.4 29.32 50.4 562 1732 144 -0.41 0.00 0.04 0.000
2:40am 360 1 6 41 77 74.0 50.5 29.32 50.5 562 1733 150 -0.30 0.00 0.04 0.000
2:41am 360 2 2 41 77 74.0 50.5 29.32 50.5 561 1733 149 -0.30 0.00 0.04 0.000
2:42am 360 2 2 41 77 74.0 50.5 29.32 50.5 562 1733 150 -0.29 0.00 0.04 0.000
2:43am 360 1 2 41 76 74.0 50.4 29.32 50.4 561 1817 143 -0.38 0.00 0.04 0.000
2:44am 360 1 2 41 75 74.0 50.4 29.32 50.4 561 1903 143 -0.38 0.00 0.04 0.000
2:45am 360 1 2 41 75 74.0 50.4 29.32 50.4 561 1903 143 -0.37 0.00 0.04 0.000
2:46am 268 2 3 41 75 74.0 50.4 29.32 50.4 561 1903 143 -0.37 0.00 0.04 0.000
2:47am 268 1 3 41 75 74.0 50.4 29.32 50.4 561 1903 143 -0.36 0.00 0.04 0.000
2:48am 320 1 3 41 74 74.0 50.4 29.32 50.4 561 1991 143 -0.35 0.00 0.04 0.000
2:49am 320 2 3 43 74 74.0 50.4 29.32 50.4 561 1991 143 -0.35 0.00 0.04 0.000
2:50am 354 4 4 41 74 74.0 50.4 29.32 49.3 562 1991 144 -0.34 0.00 0.04 0.000
2:51am 5 1 6 41 74 74.0 50.4 29.32 50.4 561 1991 143 -0.34 0.00 0.04 0.000
2:52am 5 1 6 41 74 74.0 50.5 29.32 50.5 561 1991 149 -0.23 0.00 0.04 0.000
2:53am 5 2 6 41 73 74.0 50.4 29.32 50.4 561 2079 143 -0.33 0.00 0.04 0.000
2:54am 5 2 6 41 72 74.0 50.5 29.32 50.5 561 2169 149 -0.22 0.00 0.04 0.000
2:55am 21 3 6 41 72 74.0 50.5 29.32 50.2 561 2169 149 -0.22 0.00 0.04 0.000
2:56am 21 2 4 41 73 74.0 50.5 29.32 50.5 560 2080 148 -0.22 0.00 0.03 0.000
2:57am 20 2 4 41 71 74.0 50.5 29.32 50.5 560 2260 148 -0.21 0.00 0.03 0.000
2:58am 16 1 4 41 71 74.0 50.5 29.32 50.5 560 2260 147 -0.21 0.00 0.03 0.000
2:59am 16 0 4 41 71 74.0 50.6 29.32 50.6 560 2261 154 -0.10 0.00 0.03 0.000
3:00am 16 0 4 41 72 74.0 50.6 29.32 50.6 560 2170 154 -0.10 0.00 0.03 0.000
3:01am 16 1 4 41 72 74.0 50.6 29.32 50.6 558 2170 151 -0.10 0.00 0.03 0.000
3:02am 16 1 4 41 71 74.0 50.6 29.32 50.6 558 2261 151 -0.10 0.00 0.03 0.000
3:03am 16 0 4 41 72 74.0 50.6 29.32 50.6 559 2170 153 -0.10 0.00 0.03 0.000
3:04am 16 0 4 41 73 74.0 50.6 29.32 50.6 558 2081 151 -0.10 0.00 0.03 0.000
3:05am 216 2 4 41 73 74.0 50.6 29.32 50.6 557 2081 150 -0.09 0.00 0.03 0.000
3:06am 289 3 4 41 73 74.0 50.5 29.32 50.2 557 2080 144 -0.19 0.00 0.03 0.000
3:07am 28 1 4 41 73 74.0 50.5 29.32 50.5 556 2080 142 -0.19 0.00 0.03 0.000
3:08am 28 0 4 41 73 74.0 50.5 29.32 50.5 556 2080 142 -0.18 0.00 0.03 0.000
3:09am 28 0 4 41 72 74.0 50.5 29.33 50.5 554 2169 140 -0.18 0.00 0.03 0.000
3:10am 12 1 4 41 72 74.2 50.5 29.32 50.5 557 2169 144 -0.18 0.00 0.03 0.000
3:11am 12 1 3 41 71 74.2 50.4 29.33 50.4 554 2259 133 -0.27 0.00 0.03 0.000
3:12am 193 3 6 41 71 74.2 50.4 29.32 50.1 558 2259 138 -0.27 0.00 0.03 0.000
3:13am 337 1 6 41 71 74.2 50.5 29.33 50.5 553 2260 139 -0.17 0.00 0.03 0.000
3:14am 351 1 6 41 72 74.2 50.5 29.33 50.5 554 2169 140 -0.16 0.00 0.03 0.000
3:15am 291 2 6 41 70 74.2 50.4 29.33 50.4 554 2350 133 -0.26 0.00 0.03 0.000
3:16am 291 0 2 41 71 74.2 50.4 29.32 50.4 555 2259 135 -0.26 0.00 0.02 0.000
3:17am 291 0 2 41 70 74.0 50.4 29.33 50.4 554 2350 133 -0.25 0.00 0.02 0.000
3:18am 291 0 2 41 70 74.0 50.4 29.33 50.4 552 2350 131 -0.25 0.00 0.02 0.000
3:19am 38 2 3 41 70 74.0 50.4 29.33 50.4 552 2350 131 -0.24 0.00 0.02 0.000
3:20am 12 2 3 41 70 74.0 50.4 29.33 50.4 551 2350 130 -0.24 0.00 0.02 0.000
3:21am 12 0 2 41 72 74.0 50.3 29.33 50.3 551 2167 123 -0.33 0.00 0.02 0.000
3:22am 12 3 3 41 72 74.0 50.4 29.33 50.1 551 2168 130 -0.23 0.00 0.02 0.000
3:23am 310 2 5 41 70 74.0 50.3 29.33 50.3 551 2349 123 -0.32 0.00 0.02 0.000
3:24am 348 2 5 41 69 74.0 50.2 29.33 50.2 550 2441 116 -0.42 0.00 0.02 0.000
3:25am 347 1 5 41 69 74.0 50.2 29.33 50.2 552 2441 118 -0.41 0.00 0.02 0.000
3:26am 337 1 3 41 70 74.0 50.3 29.33 50.3 550 2349 122 -0.31 0.00 0.01 0.000
3:27am 49 4 4 41 71 74.0 50.3 29.33 49.2 550 2258 122 -0.30 0.00 0.01 0.000
3:28am 354 1 4 41 71 74.0 50.3 29.33 50.3 549 2258 121 -0.30 0.00 0.01 0.000
3:29am 354 1 4 41 71 74.2 50.3 29.33 50.3 548 2258 120 -0.29 0.00 0.01 0.000
3:30am 222 1 4 41 70 74.2 50.2 29.33 50.2 548 2348 113 -0.38 0.00 0.01 0.000
3:31am 23 2 3 41 69 74.2 50.1 29.33 50.1 548 2440 107 -0.48 0.00 0.01 0.000
3:32am 25 0 3 41 69 74.2 50.2 29.33 50.2 548 2441 113 -0.37 0.00 0.01 0.000
3:33am 25 1 3 41 69 74.2 50.1 29.33 50.1 548 2440 107 -0.46 0.00 0.01 0.000
3:34am 25 0 3 41 71 74.2 50.1 29.33 50.1 548 2256 107 -0.46 0.00 0.01 0.000
3:35am 25 0 3 41 71 74.2 50.1 29.33 50.1 548 2256 107 -0.45 0.00 0.01 0.000
3:36am 25 0 2 41 71 74.2 50.1 29.33 50.1 548 2256 105 -0.44 0.00 0.01 0.000
3:37am 25 0 2 41 71 74.2 50.1 29.33 50.1 548 2256 105 -0.43 0.00 0.01 0.000
3:38am 25 0 2 41 72 74.2 50.0 29.33 50.0 548 2165 99 -0.53 0.00 0.01 0.000
3:39am 25 2 2 41 73 74.2 50.0 29.33 50.0 548 2075 99 -0.52 0.00 0.01 0.000
3:40am 25 0 2 41 71 74.2 49.9 29.33 49.9 548 2254 92 -0.61 0.00 0.01 0.000
3:41am 300 1 2 41 71 74.2 49.9 29.33 49.9 548 2254 92 -0.60 0.00 0.00 0.000
3:42am 300 0 2 41 70 74.2 49.8 29.33 49.8 548 2344 85 -0.69 0.00 0.00 0.000
3:43am 359 0 2 41 72 74.2 49.8 29.33 49.8 547 2163 84 -0.68 0.00 0.00 0.000
3:44am 45 0 3 41 71 74.2 49.8 29.33 49.8 547 2253 84 -0.66 0.00 0.00 0.000
3:45am 45 1 3 41 71 74.2 49.7 29.33 49.7 547 2252 77 -0.75 0.00 0.00 0.000
3:46am 45 1 2 41 70 74.2 49.7 29.33 49.7 546 2343 76 -0.74 0.00 0.00 0.000
3:47am 4 1 4 41 70 74.2 49.7 29.33 49.7 546 2343 76 -0.73 0.00 0.00 0.000
3:48am 4 0 4 41 71 74.2 49.6 29.33 49.6 546 2251 70 -0.81 0.00 0.00 0.000
3:49am 4 1 4 41 70 74.2 49.6 29.33 49.6 546 2342 70 -0.80 0.00 0.00 0.000
3:50am 4 2 4 41 70 74.2 49.6 29.34 49.6 545 2342 68 -0.79 0.00 0.00 0.000
3:51am 327 2 3 41 70 74.2 49.6 29.34 49.6 543 2342 66 -0.77 0.00 0.00 0.000
3:52am 327 1 3 41 72 74.2 49.6 29.34 49.6 543 2161 66 -0.76 0.00 0.00 0.000
3:53am 327 0 3 41 73 74.2 49.6 29.34 49.6 542 2072 65 -0.75 0.00 0.00 0.000
3:54am 327 0 3 41 73 74.2 49.6 29.34 49.6 542 2072 65 -0.73 0.00 0.00 0.000
3:55am 327 0 3 41 72 74.2 49.5 29.34 49.5 542 2160 58 -0.82 0.00 0.00 0.000
3:56am 327 1 1 41 72 74.2 49.5 29.34 49.5 540 2160 56 -0.81 0.00 0.00 0.000
3:57am 327 1 1 41 73 74.2 49.4 29.34 49.4 538 2070 47 -0.89 0.00 0.00 0.000
3:58am 327 0 2 41 72 74.2 49.4 29.34 49.4 539 2159 48 -0.88 0.00 0.00 0.000
3:59am 327 1 2 41 73 74.2 49.4 29.34 49.4 536 2070 45 -0.86 0.00 0.00 0.000
4:00am 10 2 2 41 72 74.2 49.3 29.34 49.3 537 2158 39 -0.95 0.00 0.00 0.000
4:01am 348 1 3 41 71 74.2 49.3 29.34 49.3 537 2248 39 -0.93 0.00 0.00 0.000
4:02am 348 1 3 41 70 74.2 49.3 29.35 49.3 535 2339 36 -0.92 0.00 0.00 0.000
4:03am 348 0 3 41 70 74.2 49.3 29.35 49.3 535 2339 36 -0.90 0.00 0.00 0.000
4:04am 348 1 3 41 72 74.2 49.3 29.35 49.3 534 2158 35 -0.89 0.00 0.00 0.000
4:05am 348 1 3 41 72 74.2 49.3 29.35 49.3 534 2158 35 -0.87 0.00 0.00 0.000
4:06am 348 1 3 41 71 74.2 49.3 29.35 49.3 534 2248 35 -0.86 0.00 0.00 0.000
4:07am 348 0 3 41 71 74.2 49.2 29.35 49.2 534 2247 28 -0.94 0.00 0.00 0.000
4:08am 348 0 3 41 71 74.2 49.2 29.35 49.2 533 2247 27 -0.93 0.00 0.00 0.000
4:09am 348 0 3 41 70 74.2 49.2 29.35 49.2 533 2338 27 -0.91 0.00 0.00 0.000
4:10am 348 0 3 41 70 74.2 49.1 29.35 49.1 533 2337 20 -1.00 0.00 0.00 0.000
4:11am 348 0 0 41 69 74.2 49.1 29.35 49.1 532 2429 19 -0.98 0.00 0.00 0.000
4:12am 348 0 0 41 70 74.2 49.1 29.35 49.1 532 2337 19 -0.96 0.00 0.00 0.000
4:13am 349 0 2 41 70 74.2 49.0 29.35 49.0 532 2336 12 -1.05 0.00 0.00 0.000
4:14am 272 0 2 41 70 74.2 49.0 29.35 49.0 532 2336 12 -1.03 0.00 0.00 0.000
4:15am 272 0 2 41 69 74.2 49.0 29.35 49.0 532 2428 12 -1.01 0.00 0.00 0.000
4:16am 272 0 0 41 69 74.2 48.9 29.35 48.9 532 2427 5 -1.10 0.00 0.00 0.000
4:17am 57 2 2 41 70 74.2 49.0 29.35 49.0 532 2336 12 -0.98 0.00 0.00 0.000
4:18am 16 0 4 41 69 74.2 49.0 29.35 49.0 531 2428 11 -0.96 0.00 0.00 0.000
4:19am 16 0 4 41 69 74.2 48.9 29.35 48.9 531 2427 4 -1.04 0.00 0.00 0.000
4:20am 16 0 4 41 69 74.2 48.8 29.35 48.8 532 2426 -1 -1.13 0.00 0.00 0.000
4:21am 16 0 1 41 69 74.2 48.8 29.35 48.8 531 2426 -2 -1.11 0.00 0.00 0.000
4:22am 16 0 1 41 70 74.2 48.8 29.35 48.8 530 2334 -4 -1.09 0.00 0.00 0.000
4:23am 16 1 1 41 69 74.2 48.8 29.35 48.8 531 2426 -2 -1.07 0.00 0.00 0.000
4:24am 27 0 4 41 69 74.2 48.7 29.35 48.7 531 2425 -9 -1.15 0.00 0.00 0.000
4:25am 27 0 4 41 69 74.2 48.7 29.35 48.7 530 2425 -10 -1.14 0.00 0.00 0.000
4:26am 27 0 0 41 70 74.2 48.7 29.35 48.7 529 2333 -11 -1.12 0.00 0.00 0.000
4:27am 27 0 0 41 70 74.2 48.7 29.35 48.7 528 2333 -13 -1.10 0.00 0.00 0.000
4:28am 27 0 0 41 70 74.2 48.7 29.35 48.7 528 2333 -13 -1.08 0.00 0.00 0.000
4:29am 27 0 1 41 70 74.2 48.6 29.36 48.6 526 2332 -22 -1.16 0.00 0.00 0.000
4:30am 27 0 1 41 70 74.2 48.6 29.35 48.6 528 2332 -19 -1.14 0.00 0.00 0.000
4:31am 27 1 1 41 70 74.2 48.5 29.35 48.5 528 2331 -26 -1.22 0.00 0.00 0.000
4:32am 27 0 3 41 70 74.2 48.5 29.36 48.5 526 2331 -28 -1.20 0.00 0.00 0.000
4:33am 27 0 3 41 71 74.2 48.5 29.36 48.5 526 2240 -28 -1.18 0.00 0.00 0.000
4:34am 27 0 3 41 72 74.2 48.4 29.35 48.4 527 2149 -34 -1.26 0.00 0.00 0.000
4:35am 27 0 3 41 71 74.2 48.3 29.35 48.3 527 2238 -41 -1.34 0.00 0.00 0.000
4:36am 34 1 2 41 71 74.2 48.3 29.36 48.3 526 2238 -42 -1.32 0.00 0.00 0.000
4:37am 34 0 2 42 70 74.2 48.3 29.36 48.3 524 2329 -44 -1.30 0.00 0.00 0.000
4:38am 34 0 2 41 71 74.2 48.2 29.36 48.2 525 2237 -50 -1.37 0.00 0.00 0.000
4:39am 79 3 3 41 71 74.2 48.2 29.36 47.6 524 2237 -51 -1.35 0.00 0.00 0.000
4:40am 78 0 3 41 71 74.2 48.2 29.36 48.2 525 2237 -50 -1.33 0.00 0.00 0.000
4:41am 79 1 2 41 72 74.2 48.1 29.35 48.1 528 2147 -53 -1.41 0.00 0.00 0.000
4:42am 79 0 2 41 71 74.2 48.1 29.36 48.1 526 2236 -55 -1.38 0.00 0.00 0.000
4:43am 79 0 2 41 71 74.2 48.1 29.35 48.1 527 2236 -54 -1.36 0.00 0.00 0.000
4:44am 79 2 2 41 71 74.2 48.0 29.35 48.0 528 2235 -60 -1.44 0.00 0.00 0.000
4:45am 79 0 2 41 70 74.2 48.0 29.36 48.0 525 2326 -63 -1.41 0.00 0.00 0.000
4:46am 79 0 0 41 71 74.2 48.0 29.36 48.0 525 2235 -63 -1.39 0.00 0.00 0.000
4:47am 79 0 0 41 71 74.2 47.9 29.36 47.9 525 2234 -70 -1.47 0.00 0.00 0.000
4:48am 79 0 1 41 70 74.0 47.9 29.36 47.9 525 2325 -70 -1.44 0.00 0.00 0.000
4:49am 79 0 1 41 70 74.0 47.9 29.36 47.9 525 2325 -70 -1.42 0.00 0.00 0.000
4:50am 79 0 1 41 70 74.0 47.9 29.36 47.9 524 2325 -71 -1.39 0.00 0.00 0.000
4:51am 79 0 0 41 70 74.0 47.9 29.36 47.9 524 2325 -71 -1.37 0.00 0.00 0.000
4:52am 79 0 0 41 70 74.0 47.9 29.36 47.9 524 2325 -71 -1.35 0.00 0.00 0.000
4:53am 79 0 1 41 70 74.0 47.8 29.36 47.8 523 2324 -80 -1.42 0.00 0.00 0.000
4:54am 79 0 1 41 70 74.0 47.9 29.36 47.9 523 2325 -73 -1.30 0.00 0.00 0.000
4:55am 79 0 1 41 70 74.0 47.8 29.36 47.8 524 2324 -79 -1.38 0.00 0.00 0.000
4:56am 79 0 1 41 71 74.0 47.8 29.36 47.8 523 2233 -80 -1.36 0.00 0.00 0.000
4:57am 79 0 1 41 71 74.0 47.8 29.36 47.8 522 2233 -81 -1.33 0.00 0.00 0.000
4:58am 79 0 2 41 71 74.0 47.8 29.36 47.8 522 2233 -81 -1.31 0.00 0.00 0.000
4:59am 79 0 2 41 71 74.0 47.8 29.36 47.8 521 2233 -82 -1.29 0.00 0.00 0.000
5:00am 79 0 2 41 71 74.0 47.8 29.36 47.8 522 2233 -81 -1.27 0.00 0.00 0.000
5:01am 79 0 0 41 71 74.2 47.7 29.36 47.7 521 2232 -89 -1.35 0.00 0.00 0.000
5:02am 79 0 0 40 72 74.0 47.8 29.36 47.8 521 2144 -82 -1.23 0.00 0.00 0.000
5:03am 79 0 0 41 72 74.0 47.7 29.36 47.7 521 2143 -89 -1.30 0.00 0.00 0.000
5:04am 79 0 0 41 72 74.0 47.7 29.36 47.7 521 2143 -89 -1.28 0.00 0.00 0.000
5:05am 79 1 1 41 72 74.0 47.6 29.36 47.6 521 2142 -96 -1.36 0.00 0.00 0.000
5:06am 79 0 1 41 72 74.2 47.6 29.36 47.6 520 2142 -97 -1.34 0.00 0.00 0.000
5:07am 79 0 1 41 72 74.2 47.6 29.36 47.6 521 2142 -96 -1.32 0.00 0.00 0.000
5:08am 79 0 1 41 72 74.2 47.5 29.36 47.5 520 2141 -104 -1.39 0.00 0.00 0.000
5:09am 79 0 1 41 71 74.2 47.4 29.36 47.4 522 2229 -108 -1.47 0.00 0.00 0.000
5:10am 79 0 1 41 72 74.2 47.4 29.36 47.4 521 2140 -109 -1.45 0.00 0.00 0.000
5:11am 79 0 0 41 72 74.2 47.4 29.36 47.4 521 2140 -109 -1.42 0.00 0.00 0.000
5:12am 79 0 0 41 73 74.2 47.4 29.36 47.4 522 2052 -108 -1.40 0.00 0.00 0.000
5:13am 79 0 0 41 73 74.2 47.3 29.36 47.3 522 2051 -115 -1.48 0.00 0.00 0.000
5:14am 79 0 0 41 73 74.0 47.2 29.36 47.2 520 2050 -124 -1.55 0.00 0.00 0.000
5:15am 79 0 0 40 73 74.0 47.2 29.36 47.2 520 2050 -124 -1.52 0.00 0.00 0.000
5:16am 79 0 0 40 73 74.0 47.2 29.36 47.2 520 2050 -124 -1.50 0.00 0.00 0.000
5:17am 79 0 0 41 73 74.0 47.1 29.36 47.1 519 2049 -132 -1.57 0.00 0.00 0.000
5:18am 79 0 0 41 73 74.0 47.0 29.36 47.0 519 2048 -138 -1.65 0.00 0.00 0.000
5:19am 79 0 0 40 73 74.0 46.9 29.36 46.9 519 2047 -145 -1.72 0.00 0.00 0.000
5:20am 79 0 0 41 73 74.0 46.9 29.36 46.9 519 2047 -145 -1.69 0.00 0.00 0.000
5:21am 79 0 0 40 74 74.0 46.9 29.36 46.9 519 1960 -145 -1.66 0.00 0.00 0.000
5:22am 79 0 0 40 74 74.0 46.8 29.36 46.8 519 1959 -152 -1.74 0.00 0.00 0.000
5:23am 79 0 0 41 74 74.0 46.7 29.36 46.7 518 1959 -160 -1.80 0.00 0.00 0.000
5:24am 79 0 0 40 74 74.0 46.7 29.36 46.7 518 1959 -160 -1.78 0.00 0.00 0.000
5:25am 79 0 0 41 75 74.0 46.7 29.36 46.7 518 1873 -160 -1.75 0.00 0.00 0.000
5:26am 79 0 0 40 74 74.0 46.6 29.36 46.6 518 1958 -167 -1.82 0.00 0.00 0.000
5:27am 79 0 0 40 74 74.0 46.5 29.36 46.5 518 1957 -173 -1.89 0.00 0.00 0.000
5:28am 79 0 0 41 74 74.0 46.4 29.36 46.4 518 1956 -180 -1.95 0.00 0.00 0.000
5:29am 79 0 0 40 75 74.0 46.5 29.36 46.5 518 1871 -173 -1.82 0.00 0.00 0.000
5:30am 79 0 0 41 75 74.0 46.4 29.37 46.4 517 1870 -181 -1.89 0.00 0.00 0.000
5:31am 79 0 0 41 75 74.0 46.3 29.37 46.3 517 1869 -188 -1.96 0.00 0.00 0.000
5:32am 79 0 0 41 75 74.0 46.2 29.37 46.2 517 1869 -195 -2.03 0.00 0.00 0.000
5:33am 79 0 0 40 75 74.0 46.2 29.37 46.2 517 1869 -195 -1.99 0.00 0.00 0.000
5:34am 79 0 0 40 75 74.0 46.1 29.37 46.1 517 1868 -202 -2.06 0.00 0.00 0.000
5:35am 79 0 0 41 75 74.0 46.0 29.37 46.0 516 1867 -209 -2.12 0.00 0.00 0.000
5:36am 79 0 0 40 75 74.0 46.0 29.37 46.0 516 1867 -209 -2.09 0.00 0.00 0.000
5:37am 79 0 0 41 75 74.0 45.9 29.37 45.9 516 1866 -216 -2.15 0.00 0.00 0.000
5:38am 79 0 0 41 75 74.0 45.8 29.37 45.8 516 1865 -223 -2.22 0.00 0.00 0.000
5:39am 79 0 0 41 75 74.0 45.8 29.37 45.8 517 1865 -222 -2.18 0.00 0.00 0.000
5:40am 79 0 0 40 75 74.0 45.6 29.37 45.6 517 1864 -235 -2.34 0.00 0.00 0.000
5:41am 79 0 0 41 75 74.0 45.6 29.37 45.6 517 1864 -235 -2.30 0.00 0.00 0.000
5:42am 79 0 0 40 76 74.0 45.6 29.37 45.6 516 1779 -237 -2.27 0.00 0.00 0.000
5:43am 79 0 0 41 76 74.0 45.5 29.37 45.5 515 1778 -244 -2.33 0.00 0.00 0.000
5:44am 79 0 0 40 76 74.0 45.4 29.37 45.4 514 1778 -252 -2.39 0.00 0.00 0.000
5:45am 79 0 0 40 76 74.0 45.4 29.37 45.4 513 1778 -254 -2.35 0.00 0.00 0.000
5:46am 79 0 0 40 76 74.0 45.3 29.37 45.3 514 1777 -259 -2.41 0.00 0.00 0.000
5:47am 79 0 0 40 76 74.0 45.2 29.37 45.2 513 1776 -267 -2.47 0.00 0.00 0.000
5:48am 79 0 0 40 76 74.0 45.1 29.37 45.1 513 1775 -274 -2.53 0.00 0.00 0.000
5:49am 79 0 0 40 76 74.0 45.1 29.37 45.1 513 1775 -274 -2.49 0.00 0.00 0.000
5:50am 79 0 0 40 76 74.0 45.0 29.37 45.0 512 1774 -282 -2.55 0.00 0.00 0.000
5:51am 79 0 0 40 76 74.0 44.9 29.37 44.9 513 1774 -287 -2.60 0.00 0.00 0.000
5:52am 79 0 0 40 76 74.0 44.9 29.37 44.9 513 1774 -287 -2.56 0.00 0.00 0.000
5:53am 79 0 0 40 77 74.0 44.9 29.37 44.9 512 1690 -290 -2.52 0.00 0.00 0.000
5:54am 79 0 0 40 77 74.0 44.8 29.37 44.8 512 1690 -296 -2.57 0.00 0.00 0.000
5:55am 79 0 0 40 77 74.0 44.8 29.37 44.8 511 1690 -298 -2.53 0.00 0.00 0.000
5:56am 79 0 0 40 77 74.0 44.6 29.37 44.6 510 1688 -312 -2.69 0.00 0.00 0.000
5:57am 79 0 0 40 77 74.0 44.6 29.37 44.6 510 1688 -312 -2.64 0.00 0.00 0.000
5:58am 79 0 0 40 77 74.0 44.5 29.37 44.5 509 1687 -320 -2.70 0.00 0.00 0.000
5:59am 79 0 0 40 77 74.0 44.5 29.37 44.5 508 1687 -321 -2.65 0.00 0.00 0.000
6:00am 79 0 0 40 78 74.0 44.4 29.38 44.4 507 1605 -329 -2.71 0.00 0.00 0.000
6:01am 79 0 0 40 78 74.0 44.3 29.38 44.3 506 1604 -337 -2.76 0.00 0.00 0.000
6:02am 79 0 0 40 78 74.0 44.3 29.38 44.3 506 1604 -337 -2.72 0.00 0.00 0.000
6:03am 79 0 0 40 78 74.0 44.2 29.38 44.2 506 1603 -344 -2.77 0.00 0.00 0.000
6:04am 79 0 0 40 78 74.0 44.1 29.38 44.1 506 1602 -351 -2.82 0.00 0.00 0.000
6:05am 79 0 0 40 78 74.0 44.1 29.38 44.1 505 1602 -352 -2.78 0.00 0.00 0.000
6:06am 79 0 0 41 78 74.0 44.1 29.38 44.1 505 1602 -352 -2.73 0.00 0.00 0.000
6:07am 79 0 0 41 78 74.0 44.1 29.38 44.1 505 1602 -352 -2.69 0.00 0.00 0.000
6:08am 79 0 0 40 78 74.2 44.0 29.38 44.0 505 1602 -359 -2.74 0.00 0.00 0.000
6:09am 79 0 0 40 78 74.2 43.9 29.38 43.9 505 1601 -366 -2.80 0.00 0.00 0.000
6:10am 79 0 0 40 78 74.2 43.8 29.38 43.8 505 1600 -372 -2.85 0.00 0.00 0.000
6:11am 79 0 0 40 79 74.2 43.8 29.38 43.8 506 1519 -371 -2.80 0.00 0.00 0.000
6:12am 79 0 0 40 79 74.0 43.7 29.38 43.7 506 1519 -378 -2.86 0.00 0.00 0.000
6:13am 79 0 0 40 79 74.0 43.6 29.38 43.6 507 1518 -384 -2.91 0.00 0.00 0.000
6:14am 79 0 0 40 79 74.0 43.6 29.38 43.6 507 1518 -384 -2.86 0.00 0.00 0.000
6:15am 79 0 0 40 79 74.0 43.6 29.38 43.6 507 1518 -384 -2.81 0.00 0.00 0.000
6:16am 79 0 0 40 79 74.0 43.5 29.38 43.5 507 1517 -391 -2.86 0.00 0.00 0.000
6:17am 79 0 0 40 79 74.0 43.4 29.37 43.4 508 1517 -396 -2.91 0.00 0.00 0.000
6:18am 79 0 0 40 79 74.0 43.4 29.37 43.4 508 1517 -396 -2.87 0.00 0.00 0.000
6:19am 79 0 0 40 80 74.0 43.4 29.37 43.4 508 1437 -396 -2.82 0.00 0.00 0.000
6:20am 79 0 0 40 80 74.0 43.3 29.37 43.3 509 1436 -402 -2.87 0.00 0.00 0.000
6:21am 79 0 0 40 80 74.0 43.3 29.37 43.3 508 1436 -403 -2.83 0.00 0.00 0.000
6:22am 79 0 0 40 80 74.0 43.4 29.37 43.4 508 1437 -396 -2.68 0.00 0.00 0.000
6:23am 79 0 0 40 81 74.0 43.4 29.38 43.4 507 1358 -397 -2.64 0.00 0.00 0.000
6:24am 79 0 0 40 81 74.0 43.4 29.38 43.4 507 1358 -397 -2.59 0.00 0.00 0.000
6:25am 79 0 0 40 81 74.0 43.4 29.38 43.4 506 1358 -399 -2.55 0.00 0.00 0.000
6:26am 79 0 0 40 82 74.0 43.4 29.38 43.4 505 1280 -400 -2.51 0.00 0.00 0.000
6:27am 79 0 0 40 82 74.0 43.4 29.38 43.4 505 1280 -400 -2.47 0.00 0.00 0.000
6:28am 79 0 0 40 82 74.0 43.5 29.38 43.5 505 1280 -393 -2.32 0.00 0.00 0.000
6:29am 79 0 0 40 82 74.0 43.4 29.38 43.4 504 1280 -401 -2.39 0.00 0.00 0.000
6:30am 79 0 0 40 82 74.0 43.4 29.38 43.4 504 1280 -401 -2.35 0.00 0.00 0.000
6:31am 79 0 0 40 82 74.0 43.4 29.38 43.4 504 1280 -401 -2.31 0.00 0.00 0.000
6:32am 79 0 0 40 82 74.0 43.4 29.38 43.4 504 1280 -401 -2.27 0.00 0.00 0.000
6:33am 79 0 0 40 82 74.0 43.4 29.38 43.4 504 1280 -401 -2.23 0.00 0.00 0.000
6:34am 79 0 0 40 82 74.0 43.4 29.38 43.4 504 1280 -401 -2.19 0.00 0.00 0.000
6:35am 79 0 0 40 83 74.0 43.4 29.38 43.4 504 1202 -401 -2.16 0.00 0.00 0.000
6:36am 79 0 0 40 83 74.0 43.4 29.38 43.4 503 1202 -402 -2.12 0.00 0.00 0.000
6:37am 79 0 0 40 83 74.0 43.5 29.38 43.5 502 1203 -396 -1.99 0.00 0.00 0.000
6:38am 79 0 0 40 83 74.0 43.4 29.38 43.4 502 1202 -403 -2.06 0.00 0.00 0.000
6:39am 79 0 0 40 82 74.0 43.4 29.38 43.4 502 1280 -403 -2.02 0.00 0.00 0.000
6:40am 79 0 0 40 82 74.0 43.4 29.38 43.4 501 1280 -404 -1.99 0.00 0.00 0.000
6:41am 79 0 0 40 82 74.0 43.4 29.38 43.4 502 1280 -403 -1.96 0.00 0.00 0.000
6:42am 79 0 0 40 82 74.0 43.4 29.38 43.4 502 1280 -403 -1.92 0.00 0.00 0.000
6:43am 79 0 0 40 82 74.0 43.4 29.38 43.4 502 1280 -403 -1.89 0.00 0.00 0.000
6:44am 79 0 0 40 83 74.0 43.4 29.38 43.4 501 1202 -404 -1.86 0.00 0.00 0.000
6:45am 79 0 0 40 83 74.0 43.4 29.38 43.4 500 1202 -405 -1.83 0.00 0.00 0.000
6:46am 79 0 0 40 83 74.0 43.3 29.38 43.3 499 1202 -414 -1.90 0.00 0.00 0.000
6:47am 79 0 0 40 83 74.0 43.4 29.39 43.4 498 1202 -409 -1.77 0.00 0.00 0.000
6:48am 79 0 0 40 83 74.0 43.4 29.39 43.4 497 1202 -410 -1.74 0.00 0.00 0.000
6:49am 79 0 0 40 83 74.0 43.3 29.39 43.3 496 1202 -418 -1.81 0.00 0.00 0.000
6:50am 79 0 0 40 83 74.0 43.4 29.39 43.4 496 1202 -411 -1.68 0.00 0.00 0.000
6:51am 79 0 0 40 84 74.0 43.4 29.39 43.4 496 1126 -411 -1.65 0.00 0.00 0.000
6:52am 79 0 0 40 84 74.0 43.5 29.39 43.5 496 1126 -404 -1.53 0.00 0.00 0.000
6:53am 79 0 0 40 84 74.0 43.5 29.39 43.5 497 1126 -403 -1.50 0.00 0.00 0.000
6:54am 79 0 0 40 84 74.0 43.6 29.39 43.6 497 1127 -396 -1.38 0.00 0.00 0.000
6:55am 79 0 0 40 84 74.0 43.7 29.39 43.7 498 1127 -388 -1.26 0.00 0.00 0.000
6:56am 79 0 0 40 84 74.0 43.8 29.38 43.8 499 1128 -380 -1.14 0.00 0.00 0.000
6:57am 79 0 0 40 84 74.0 43.8 29.38 43.8 500 1128 -379 -1.12 0.00 0.00 0.000
6:58am 79 0 0 40 84 74.0 43.9 29.38 43.9 500 1128 -373 -1.00 0.00 0.00 0.000
6:59am 79 0 0 40 84 74.0 44.0 29.38 44.0 499 1129 -367 -0.88 0.00 0.00 0.000
7:00am 79 0 0 40 84 74.0 44.0 29.38 44.0 499 1129 -367 -0.87 0.00 0.00 0.000
7:01am 79 0 0 40 84 74.0 44.1 29.39 44.1 497 1129 -362 -0.76 0.00 0.00 0.000
7:02am 79 0 0 40 85 74.0 44.2 29.39 44.2 495 1054 -358 -0.64 0.00 0.00 0.000
7:03am 79 0 0 40 85 74.0 44.4 29.39 44.4 494 1055 -345 -0.44 0.00 0.00 0.000
7:04am 79 0 0 40 84 74.0 44.4 29.39 44.4 492 1131 -348 -0.43 0.00 0.00 0.000
7:05am 79 0 0 40 84 74.0 44.5 29.39 44.5 491 1131 -342 -0.32 0.00 0.00 0.000
7:06am 79 0 0 40 84 74.0 44.5 29.39 44.5 490 1131 -343 -0.31 0.00 0.00 0.000
7:07am 79 0 0 40 84 74.0 44.6 29.39 44.6 490 1132 -336 -0.21 0.00 0.00 0.000
7:08am 79 0 0 40 84 74.0 44.6 29.39 44.6 490 1132 -336 -0.21 0.00 0.00 0.000
7:09am 79 0 0 40 84 74.0 44.7 29.39 44.7 489 1132 -331 -0.11 0.00 0.00 0.000
7:10am 79 0 0 40 83 74.0 44.8 29.39 44.8 489 1210 -324 -0.00 0.00 0.00 0.000
7:11am 79 0 0 40 83 74.0 44.8 29.39 44.8 489 1210 -324 -0.00 0.00 0.00 0.000
7:12am 79 0 0 40 83 74.0 44.9 29.39 44.9 489 1210 -317 0.09 0.00 0.00 0.000
7:13am 79 0 0 40 83 74.0 45.1 29.39 45.1 489 1211 -304 0.29 0.00 0.00 0.000
7:14am 79 0 0 40 83 74.0 45.1 29.39 45.1 489 1211 -304 0.29 0.00 0.00 0.000
7:15am 79 0 0 40 83 74.0 45.2 29.39 45.2 489 1212 -297 0.38 0.00 0.00 0.000
7:16am 79 0 0 40 83 74.0 45.3 29.39 45.3 489 1212 -290 0.47 0.00 0.00 0.000
7:17am 79 0 0 40 82 74.0 45.4 29.39 45.4 489 1291 -283 0.57 0.00 0.00 0.000
7:18am 79 0 0 40 82 74.0 45.5 29.39 45.5 489 1292 -276 0.66 0.00 0.00 0.000
7:19am 79 0 0 40 82 74.0 45.6 29.39 45.6 489 1292 -270 0.74 0.00 0.00 0.000
7:20am 79 0 0 40 82 74.0 45.7 29.39 45.7 489 1293 -263 0.83 0.00 0.00 0.000
7:21am 79 0 0 40 82 74.0 45.8 29.39 45.8 489 1293 -256 0.92 0.00 0.00 0.000
7:22am 79 0 0 40 81 74.0 45.9 29.39 45.9 489 1373 -249 1.00 0.00 0.00 0.000
7:23am 79 0 0 40 81 74.0 46.0 29.40 46.0 488 1373 -244 1.08 0.00 0.00 0.000
7:24am 79 0 0 40 81 74.0 46.1 29.40 46.1 488 1374 -237 1.17 0.00 0.00 0.000
7:25am 79 0 0 40 81 74.0 46.1 29.40 46.1 488 1374 -237 1.15 0.00 0.00 0.000
7:26am 79 0 0 40 81 74.0 46.2 29.40 46.2 488 1375 -230 1.23 0.00 0.00 0.000
7:27am 79 0 0 40 81 74.0 46.3 29.40 46.3 488 1375 -223 1.30 0.00 0.00 0.000
7:28am 79 0 0 40 81 74.0 46.5 29.40 46.5 488 1377 -210 1.48 0.00 0.00 0.000
7:29am 79 0 0 40 81 74.0 46.5 29.40 46.5 488 1377 -210 1.46 0.00 0.00 0.000
7:30am 79 0 0 40 81 74.0 46.7 29.40 46.7 488 1378 -196 1.63 0.00 0.00 0.000
7:31am 79 0 0 40 81 74.0 46.7 29.40 46.7 488 1378 -196 1.60 0.00 0.00 0.000
7:32am 79 0 0 40 81 74.0 46.8 29.40 46.8 488 1378 -190 1.67 0.00 0.00 0.000
7:33am 79 0 0 40 80 74.0 46.9 29.39 46.9 489 1459 -182 1.75 0.00 0.00 0.000
7:34am 79 0 0 40 80 74.0 47.0 29.39 47.0 489 1460 -175 1.82 0.00 0.00 0.000
7:35am 79 0 0 40 80 74.0 47.2 29.39 47.2 489 1461 -162 1.98 0.00 0.00 0.000
7:36am 79 0 0 40 80 74.0 47.3 29.40 47.3 488 1462 -156 2.05 0.00 0.00 0.000
7:37am 79 0 0 40 80 74.0 47.4 29.40 47.4 488 1462 -149 2.11 0.00 0.00 0.000
7:38am 79 0 0 40 80 74.0 47.5 29.40 47.5 488 1463 -144 2.18 0.00 0.00 0.000
7:39am 79 0 0 40 80 74.0 47.6 29.40 47.6 487 1464 -138 2.24 0.00 0.00 0.000
7:40am 79 0 0 40 80 74.0 47.7 29.40 47.7 485 1464 -134 2.30 0.00 0.00 0.000
7:41am 79 0 0 40 80 74.0 47.7 29.40 47.7 484 1464 -135 2.26 0.00 0.00 0.000
7:42am 79 0 0 40 80 74.0 47.9 29.40 47.9 485 1466 -120 2.43 0.00 0.00 0.000
7:43am 79 0 0 40 80 74.0 48.0 29.40 48.0 485 1466 -113 2.48 0.00 0.00 0.000
7:44am 79 0 0 40 79 74.0 48.1 29.40 48.1 485 1549 -107 2.54 0.00 0.00 0.000
7:45am 79 0 0 40 79 74.0 48.2 29.40 48.2 485 1549 -100 2.60 0.00 0.00 0.000
7:46am 79 0 0 40 79 74.0 48.3 29.40 48.3 484 1550 -94 2.66 0.00 0.00 0.000
7:47am 79 0 0 40 79 74.0 48.5 29.40 48.5 483 1551 -82 2.81 0.00 0.00 0.000
7:48am 79 0 0 40 79 74.0 48.6 29.40 48.6 483 1552 -75 2.86 0.00 0.00 0.000
7:49am 79 0 0 40 79 74.0 48.7 29.40 48.7 484 1553 -67 2.92 0.00 0.00 0.000
7:50am 79 0 0 40 79 74.0 48.9 29.40 48.9 484 1554 -54 3.07 0.00 0.00 0.000
7:51am 79 0 0 40 79 74.0 49.0 29.40 49.0 485 1555 -46 3.12 0.00 0.00 0.000
7:52am 79 0 0 40 78 74.0 49.2 29.40 49.2 485 1639 -33 3.26 0.00 0.00 0.000
7:53am 79 0 0 40 78 74.0 49.4 29.40 49.4 484 1640 -20 3.41 0.00 0.00 0.000
7:54am 79 0 0 40 78 74.0 49.6 29.40 49.6 484 1642 -7 3.55 0.00 0.00 0.000
7:55am 79 0 0 40 78 74.0 49.7 29.40 49.7 484 1643 -0 3.59 0.00 0.00 0.000
7:56am 79 0 0 40 77 74.0 49.9 29.40 49.9 483 1728 12 3.73 0.00 0.00 0.000
7:57am 79 0 0 40 76 74.0 50.1 29.40 50.1 483 1815 25 3.86 0.00 0.00 0.000
7:58am 79 0 0 40 76 74.0 50.2 29.40 50.2 482 1816 31 3.90 0.00 0.00 0.000
7:59am 79 0 0 40 76 74.0 50.3 29.40 50.3 480 1816 35 3.93 0.00 0.00 0.000
8:00am 79 0 0 40 76 74.0 50.5 29.40 50.5 480 1818 49 4.07 0.00 0.00 0.000
8:01am 79 0 0 40 76 74.0 50.6 29.41 50.6 479 1819 54 4.10 0.00 0.00 0.000
8:02am 79 0 0 40 76 74.0 50.7 29.41 50.7 478 1819 60 4.13 0.00 0.00 0.000
8:03am 79 0 0 40 74 74.0 50.8 29.41 50.8 477 1994 65 4.16 0.00 0.00 0.000
8:04am 327 0 0 40 74 74.0 50.9 29.41 50.9 477 1995 72 4.19 0.00 0.00 0.000
8:05am 327 0 0 40 74 74.0 51.0 29.41 51.0 477 1996 79 4.22 0.00 0.00 0.000
8:06am 327 0 0 40 74 74.0 51.1 29.41 51.1 477 1997 85 4.25 0.00 0.00 0.000
8:07am 327 0 0 40 75 74.0 51.2 29.41 51.2 476 1910 91 4.28 0.00 0.00 0.000
8:08am 327 0 0 40 74 74.0 51.3 29.41 51.3 476 1998 98 4.31 0.00 0.00 0.000
8:09am 327 0 0 40 74 74.0 51.3 29.41 51.3 476 1998 97 4.24 0.00 0.00 0.000
8:10am 327 0 0 40 73 74.0 51.5 29.41 51.5 476 2089 110 4.36 0.00 0.00 0.000
8:11am 328 0 0 40 73 74.0 51.6 29.41 51.6 476 2090 117 4.39 0.00 0.00 0.000
8:12am 300 0 0 40 73 74.0 51.7 29.41 51.7 476 2091 123 4.42 0.00 0.00 0.000
8:13am 300 0 0 40 72 74.0 51.7 29.41 51.7 476 2181 123 4.34 0.00 0.00 0.000
8:14am 300 0 0 40 72 74.0 51.8 29.41 51.8 476 2182 130 4.37 0.00 0.00 0.000
8:15am 197 0 0 40 72 74.0 51.9 29.41 51.9 476 2183 137 4.40 0.00 0.00 0.000
8:16am 285 0 0 40 70 74.0 52.0 29.41 52.0 476 2367 143 4.42 0.00 0.00 0.000
8:17am 286 0 0 40 70 74.0 52.1 29.41 52.1 476 2368 150 4.45 0.00 0.00 0.000
8:18am 286 0 0 40 70 74.0 52.2 29.41 52.2 476 2369 157 4.48 0.00 0.00 0.000
8:19am 286 0 0 40 70 74.0 52.3 29.41 52.3 476 2370 163 4.50 0.00 0.00 0.000
8:20am 286 0 0 40 71 74.0 52.3 29.41 52.3 476 2278 163 4.43 0.00 0.00 0.000
8:21am 286 0 0 40 71 74.0 52.5 29.41 52.5 476 2280 177 4.55 0.00 0.00 0.000
8:22am 283 0 0 40 71 74.0 52.6 29.41 52.6 476 2281 184 4.58 0.00 0.00 0.000
8:23am 282 0 0 40 69 74.0 52.6 29.41 52.6 476 2467 184 4.50 0.00 0.00 0.000
8:24am 282 0 0 40 68 74.0 52.8 29.41 52.8 476 2564 198 4.62 0.00 0.00 0.000
8:25am 256 2 4 40 69 74.0 52.9 29.41 52.9 477 2470 206 4.65 0.00 0.00 0.000
8:26am 266 0 2 40 68 74.0 53.0 29.41 53.0 477 2566 212 4.67 0.00 0.00 0.000
8:27am 266 1 2 40 69 74.0 53.1 29.41 53.1 477 2472 219 4.69 0.00 0.00 0.000
8:28am 266 0 2 40 68 74.0 53.2 29.41 53.2 477 2568 225 4.71 0.00 0.00 0.000
8:29am 266 1 2 40 68 74.0 53.3 29.41 53.3 477 2569 232 4.74 0.00 0.00 0.000
8:30am 266 2 2 40 69 74.0 53.4 29.41 53.4 476 2475 238 4.76 0.00 0.00 0.000
8:31am 266 0 2 40 68 74.0 53.5 29.41 53.5 477 2572 245 4.78 0.00 0.00 0.000
8:32am 266 1 2 40 69 74.0 53.6 29.41 53.6 476 2478 251 4.79 0.00 0.00 0.000
8:33am 258 2 2 40 68 74.0 53.7 29.41 53.7 477 2574 259 4.81 0.00 0.00 0.000
8:34am 183 2 3 40 66 74.0 53.8 29.41 53.8 477 2770 265 4.83 0.00 0.00 0.000
8:35am 220 3 4 40 66 74.0 53.8 29.41 53.8 478 2770 267 4.75 0.00 0.00 0.000
8:36am 220 1 3 40 63 74.0 53.9 29.41 53.9 478 3073 273 4.78 0.00 0.00 0.000
8:37am 310 2 3 40 64 74.0 54.0 29.41 54.0 477 2972 279 4.79 0.00 0.00 0.000
8:38am 262 2 3 40 63 74.0 54.1 29.41 54.1 477 3075 285 4.81 0.00 0.00 0.000
8:39am 263 0 3 40 62 74.0 54.1 29.41 54.1 477 3179 285 4.74 0.00 0.00 0.000
8:40am 209 1 3 40 62 74.0 54.1 29.41 54.1 476 3179 284 4.66 0.00 0.00 0.000
8:41am 209 0 1 40 63 74.0 54.2 29.41 54.2 476 3077 291 4.68 0.00 0.00 0.000
8:42am 209 1 1 40 63 74.0 54.2 29.41 54.2 476 3077 291 4.60 0.00 0.00 0.000
8:43am 220 1 2 40 63 74.0 54.3 29.41 54.3 476 3078 297 4.62 0.00 0.00 0.000
8:44am 197 2 3 40 61 74.0 54.4 29.41 54.4 477 3288 305 4.65 0.00 0.00 0.000
8:45am 197 1 3 40 62 74.0 54.5 29.41 54.5 477 3184 312 4.67 0.00 0.00 0.000
8:46am 198 3 3 40 62 74.0 54.6 29.41 54.6 476 3186 317 4.69 0.00 0.00 0.000
8:47am 198 3 3 40 61 74.0 54.6 29.41 54.6 476 3291 317 4.61 0.00 0.00 0.000
8:48am 243 2 6 40 62 74.0 54.7 29.41 54.7 476 3187 324 4.64 0.00 0.00 0.000
8:49am 106 2 6 40 61 74.0 54.8 29.41 54.8 476 3294 331 4.66 0.00 0.00 0.000
8:50am 191 1 6 40 61 74.0 54.8 29.41 54.8 476 3294 331 4.59 0.00 0.00 0.000
8:51am 91 2 3 40 58 74.0 54.9 29.41 54.9 476 3621 336 4.61 0.00 0.00 0.000
8:52am 91 1 3 40 59 74.0 54.9 29.41 54.9 476 3511 337 4.53 0.00 0.00 0.000
8:53am 91 0 3 40 58 74.0 55.1 29.41 55.1 476 3624 350 4.65 0.00 0.00 0.000
8:54am 91 0 3 40 59 74.0 55.1 29.41 55.1 476 3514 349 4.58 0.00 0.00 0.000
8:55am 91 0 3 40 60 74.0 55.3 29.41 55.3 476 3408 364 4.70 0.00 0.00 0.000
8:56am 91 2 2 40 59 74.0 55.4 29.41 55.4 476 3518 370 4.72 0.00 0.00 0.000
8:57am 96 2 4 40 57 74.0 55.4 29.41 55.4 476 3741 370 4.65 0.00 0.00 0.000
8:58am 96 1 4 40 60 74.0 55.5 29.41 55.5 476 3411 377 4.67 0.00 0.00 0.000
8:59am 96 3 4 40 59 74.0 55.6 29.41 55.6 476 3521 383 4.69 0.00 0.00 0.000
9:00am 349 1 4 40 56 74.0 55.7 29.41 55.7 476 3860 390 4.71 0.00 0.00 0.000
9:01am 349 0 2 40 58 74.0 55.7 29.41 55.7 476 3633 390 4.63 0.00 0.00 0.000
9:02am 349 1 2 41 59 74.0 55.9 29.41 55.9 476 3526 403 4.75 0.00 0.00 0.000
9:03am 310 0 2 40 58 74.0 55.9 29.41 55.9 476 3636 403 4.67 0.00 0.00 0.000
9:04am 310 1 2 40 59 74.0 56.0 29.41 56.0 476 3527 410 4.70 0.00 0.00 0.000
9:05am 221 3 3 40 59 74.0 56.0 29.41 56.0 476 3527 410 4.62 0.00 0.00 0.000
9:06am 293 2 3 40 56 74.0 56.1 29.41 56.1 476 3866 417 4.64 0.00 0.00 0.000
9:07am 265 0 3 40 56 74.0 56.1 29.41 56.1 476 3866 417 4.56 0.00 0.00 0.000
9:08am 265 0 3 40 58 74.0 56.3 29.41 56.3 477 3643 431 4.69 0.00 0.00 0.000
9:09am 265 0 3 40 59 74.0 56.4 29.41 56.4 478 3533 439 4.71 0.00 0.00 0.000
9:10am 265 2 3 40 58 74.0 56.6 29.41 56.6 479 3647 453 4.83 0.00 0.00 0.000
9:11am 254 0 2 40 59 74.0 56.6 29.40 56.6 480 3536 454 4.75 0.00 0.00 0.000
9:12am 254 1 2 40 55 74.0 56.7 29.40 56.7 480 3992 461 4.77 0.00 0.00 0.000
9:13am 255 0 3 40 54 74.0 56.8 29.40 56.8 480 4112 467 4.79 0.00 0.00 0.000
9:14am 255 0 3 40 54 74.0 56.9 29.41 56.9 479 4114 473 4.81 0.00 0.00 0.000
9:15am 158 2 7 40 52 74.0 57.0 29.40 57.0 480 4358 480 4.83 0.00 0.00 0.000
9:16am 232 2 3 40 54 74.0 57.1 29.41 57.1 479 4118 486 4.85 0.00 0.00 0.000
9:17am 314 0 3 40 56 74.0 57.2 29.40 57.2 480 3884 494 4.87 0.00 0.00 0.000
9:18am 265 1 3 40 53 74.0 57.2 29.41 57.2 479 4240 492 4.79 0.00 0.00 0.000
9:19am 237 4 4 40 52 74.0 57.3 29.40 57.3 480 4364 500 4.81 0.00 0.00 0.000
9:20am 258 3 4 40 49 74.0 57.4 29.40 57.4 481 4746 508 4.83 0.00 0.00 0.000
9:21am 271 1 3 40 52 74.0 57.5 29.40 57.5 480 4368 513 4.85 0.00 0.00 0.000
9:22am 252 1 3 40 55 74.0 57.5 29.40 57.5 483 4006 517 4.77 0.00 0.00 0.000
9:23am 278 1 4 40 52 74.0 57.5 29.40 57.5 480 4368 513 4.69 0.00 0.00 0.000
9:24am 278 0 4 40 48 74.0 57.5 29.40 57.5 480 4880 513 4.61 0.00 0.00 0.000
9:25am 277 1 4 40 47 74.0 57.5 29.40 57.5 480 5014 513 4.54 0.00 0.00 0.000
9:26am 278 1 3 40 48 74.0 57.5 29.41 57.5 479 4880 512 4.46 0.00 0.00 0.000
9:27am 278 1 3 40 47 74.0 57.5 29.40 57.5 481 5014 515 4.39 0.00 0.00 0.000
9:28am 280 0 3 40 48 74.0 57.5 29.40 57.5 480 4880 513 4.31 0.00 0.00 0.000
9:29am 181 2 3 40 47 74.0 57.5 29.40 57.5 482 5014 516 4.25 0.00 0.00 0.000
9:30am 181 2 3 40 51 74.0 57.5 29.40 57.5 482 4492 516 4.17 0.00 0.00 0.000
9:31am 117 0 2 40 50 74.0 57.6 29.40 57.6 482 4621 522 4.20 0.00 0.00 0.000
9:32am 117 1 2 40 54 74.0 57.7 29.40 57.7 482 4128 529 4.23 0.00 0.00 0.000
9:33am 226 4 8 40 54 74.0 57.7 29.40 57.7 483 4128 530 4.16 0.00 0.00 0.000
9:34am 227 3 8 40 48 74.0 57.7 29.40 57.7 483 4884 530 4.09 0.00 0.00 0.000
9:35am 271 2 8 40 49 74.0 57.8 29.40 57.8 484 4754 538 4.12 0.00 0.00 0.000
9:36am 179 4 6 40 50 74.0 57.8 29.40 57.8 481 4625 534 4.06 0.00 0.00 0.000
9:37am 182 2 6 40 50 74.0 57.9 29.40 57.9 483 4627 543 4.09 0.00 0.00 0.000
9:38am 194 3 6 40 50 74.0 57.9 29.40 57.9 483 4627 543 4.02 0.00 0.00 0.000
9:39am 258 5 6 40 50 74.0 58.0 29.40 57.6 484 4629 551 4.05 0.00 0.00 0.000
9:40am 276 3 6 40 49 74.0 58.1 29.40 58.1 485 4760 559 4.09 0.00 0.00 0.000
9:41am 179 1 3 40 48 74.0 58.1 29.40 58.1 485 4892 559 4.02 0.00 0.00 0.000
9:42am 286 3 3 40 49 74.0 58.2 29.40 58.2 487 4762 567 4.05 0.00 0.00 0.000
9:43am 228 2 3 40 51 74.0 58.2 29.40 58.2 485 4506 565 3.98 0.00 0.00 0.000
9:44am 300 2 3 40 51 74.0 58.3 29.40 58.3 485 4508 572 4.02 0.00 0.00 0.000
9:45am 239 3 4 40 50 73.8 58.3 29.40 58.3 486 4635 573 3.95 0.00 0.00 0.000
9:46am 218 1 5 40 50 73.8 58.2 29.40 58.2 488 4633 569 3.79 0.00 0.00 0.000
9:47am 233 0 5 40 49 73.8 58.2 29.40 58.2 487 4762 567 3.72 0.00 0.00 0.000
9:48am 233 0 5 40 53 73.8 58.2 29.40 58.2 487 4258 567 3.66 0.00 0.00 0.000
9:49am 194 3 5 40 53 73.8 58.3 29.40 58.3 487 4260 574 3.70 0.00 0.00 0.000
9:50am 219 3 5 40 50 73.8 58.2 29.40 58.2 487 4633 567 3.54 0.00 0.00 0.000
9:51am 52 1 3 40 52 73.8 58.2 29.40 58.2 487 4381 567 3.48 0.00 0.00 0.000
9:52am 23 2 3 40 52 73.8 58.2 29.40 58.2 486 4381 566 3.43 0.00 0.00 0.000
9:53am 23 1 3 40 52 73.8 58.2 29.40 58.2 486 4381 566 3.37 0.00 0.00 0.000
9:54am 202 2 5 40 50 73.8 58.1 29.40 58.1 487 4631 561 3.21 0.00 0.00 0.000
9:55am 202 2 5 40 51 73.8 58.1 29.40 58.1 487 4504 561 3.16 0.00 0.00 0.000
9:56am 252 2 3 40 52 73.8 58.1 29.40 58.1 486 4379 560 3.11 0.00 0.00 0.000
9:57am 284 4 6 40 53 73.8 58.1 29.40 58.1 485 4256 559 3.06 0.00 0.00 0.000
9:58am 213 3 9 40 51 73.8 57.9 29.40 57.9 487 4500 548 2.81 0.00 0.00 0.000
9:59am 216 1 9 40 48 73.8 57.8 29.40 57.8 486 4886 540 2.66 0.00 0.00 0.000
10:00am 202 3 9 40 49 73.8 57.8 29.40 57.8 486 4754 540 2.62 0.00 0.00 0.000
10:01am 248 2 6 40 48 73.8 57.7 29.40 57.7 487 4884 535 2.48 0.00 0.00 0.000
10:02am 216 2 6 39 51 73.8 57.7 29.40 57.7 486 4496 533 2.43 0.00 0.00 0.000
10:03am 258 6 6 39 51 73.8 57.8 29.40 57.0 486 4498 540 2.49 0.00 0.00 0.000
10:04am 201 2 6 39 50 73.8 57.8 29.40 57.8 487 4625 541 2.45 0.00 0.00 0.000
10:05am 172 1 6 39 50 73.8 57.8 29.40 57.8 487 4625 541 2.41 0.00 0.00 0.000
10:06am 287 3 5 40 50 73.8 57.8 29.40 57.8 488 4625 543 2.37 0.00 0.00 0.000
10:07am 222 2 5 39 48 73.8 57.9 29.40 57.9 488 4888 550 2.43 0.00 0.00 0.000
10:08am 164 0 5 39 50 73.8 58.0 29.39 58.0 489 4629 558 2.49 0.00 0.00 0.000
10:09am 332 3 5 39 49 73.8 58.1 29.39 58.1 489 4760 564 2.55 0.00 0.00 0.000
10:10am 336 0 5 39 49 73.8 58.3 29.39 58.3 489 4764 577 2.71 0.00 0.00 0.000
10:11am 336 0 1 40 51 73.8 58.4 29.39 58.4 490 4510 585 2.76 0.00 0.00 0.000
10:12am 336 3 3 40 54 73.8 58.6 29.39 58.6 490 4144 598 2.91 0.00 0.00 0.000
10:13am 264 7 7 39 52 73.8 58.8 29.39 57.8 490 4392 611 3.06 0.00 0.00 0.000
10:14am 335 1 7 39 51 73.8 58.9 29.39 58.9 490 4519 618 3.11 0.00 0.00 0.000
10:15am 320 5 7 39 53 73.8 59.1 29.39 58.9 490 4274 631 3.26 0.00 0.00 0.000
10:16am 334 3 5 39 52 73.8 59.2 29.39 59.2 490 4399 638 3.31 0.00 0.00 0.000
10:17am 226 1 5 39 50 73.8 59.4 29.39 59.4 490 4657 651 3.45 0.00 0.00 0.000
10:18am 300 3 5 39 51 73.8 59.5 29.39 59.5 489 4531 656 3.49 0.00 0.00 0.000
10:19am 183 3 6 39 49 73.8 59.6 29.39 59.6 490 4791 664 3.53 0.00 0.00 0.000
10:20am 255 1 6 39 50 73.8 59.6 29.39 59.6 489 4661 663 3.48 0.00 0.00 0.000
10:21am 327 4 4 39 50 73.8 59.6 29.39 59.6 490 4661 664 3.42 0.00 0.00 0.000
10:22am 187 1 4 39 50 73.8 59.7 29.39 59.7 490 4663 670 3.46 0.00 0.00 0.000
10:23am 269 2 4 39 47 73.8 59.8 29.39 59.8 490 5063 677 3.50 0.00 0.00 0.000
10:24am 339 2 4 39 50 73.8 59.9 29.39 59.9 490 4667 683 3.54 0.00 0.00 0.000
10:25am 327 2 4 39 48 73.8 59.9 29.39 59.9 490 4930 683 3.49 0.00 0.00 0.000
10:26am 256 3 3 39 48 73.8 60.0 29.39 60.0 490 4932 690 3.53 0.00 0.00 0.000
10:27am 199 6 9 39 48 73.8 60.1 29.39 59.7 490 4934 696 3.57 0.00 0.00 0.000
10:28am 189 3 9 39 47 73.8 60.1 29.39 60.1 490 5069 696 3.51 0.00 0.00 0.000
10:29am 117 3 9 39 50 73.8 60.1 29.39 60.1 490 4670 696 3.45 0.00 0.00 0.000
10:30am 130 2 9 39 46 73.8 60.0 29.39 60.0 491 5205 691 3.30 0.00 0.00 0.000
10:31am 136 1 2 39 45 73.8 60.0 29.39 60.0 491 5345 691 3.24 0.00 0.00 0.000
10:32am 161 3 3 39 48 73.8 60.1 29.39 60.1 491 4934 698 3.29 0.00 0.00 0.000
10:33am 300 2 4 39 48 73.8 60.2 29.39 60.2 491 4936 704 3.33 0.00 0.00 0.000
10:34am 167 3 6 39 46 73.8 60.2 29.39 60.2 491 5209 704 3.27 0.00 0.00 0.000
10:35am 350 3 6 39 50 73.8 60.3 29.39 60.3 491 4674 711 3.32 0.00 0.00 0.000
10:36am 283 3 6 39 47 73.8 60.3 29.39 60.3 491 5073 711 3.27 0.00 0.00 0.000
10:37am 310 1 6 39 48 73.8 60.3 29.39 60.3 491 4938 711 3.21 0.00 0.00 0.000
10:38am 310 0 6 39 48 73.8 60.3 29.39 60.3 491 4938 711 3.16 0.00 0.00 0.000
10:39am 305 4 6 39 49 73.8 60.4 29.39 60.4 492 4807 718 3.21 0.00 0.00 0.000
10:40am 314 2 6 39 47 73.8 60.5 29.39 60.5 493 5078 726 3.25 0.00 0.00 0.000
10:41am 77 1 4 39 47 73.8 60.6 29.39 60.6 494 5080 734 3.29 0.00 0.00 0.000
10:42am 316 2 4 39 47 73.8 60.7 29.39 60.7 493 5082 739 3.34 0.00 0.00 0.000
10:43am 273 1 4 39 47 73.8 60.8 29.39 60.8 493 5084 746 3.38 0.00 0.00 0.000
10:44am 283 2 4 39 50 73.8 60.9 29.39 60.9 492 4686 751 3.43 0.00 0.00 0.000
10:45am 287 0 4 39 50 73.8 61.0 29.39 61.0 492 4688 758 3.47 0.00 0.00 0.000
10:46am 264 3 4 39 48 73.8 61.2 29.39 61.2 493 4957 772 3.61 0.00 0.00 0.000
10:47am 211 0 4 39 47 73.6 61.3 29.39 61.3 493 5095 778 3.65 0.00 0.00 0.000
10:48am 360 1 4 39 48 73.6 61.3 29.39 61.3 492 4959 777 3.59 0.00 0.00 0.000
10:49am 353 3 4 39 45 73.6 61.4 29.39 61.4 497 5377 789 3.63 0.00 0.00 0.000
10:50am 300 4 7 39 45 73.6 61.5 29.39 61.5 496 5379 795 3.67 0.00 0.00 0.000
10:51am 348 4 6 39 45 73.6 61.5 29.39 61.5 494 5379 792 3.61 0.00 0.00 0.000
10:52am 345 3 6 39 45 73.6 61.6 29.39 61.6 498 5382 804 3.65 0.00 0.00 0.000
10:53am 328 2 6 39 46 73.6 61.7 29.38 61.7 499 5242 811 3.69 0.00 0.00 0.000
10:54am 310 2 6 39 45 73.6 61.7 29.39 61.7 497 5384 809 3.63 0.00 0.00 0.000
10:55am 41 2 6 39 45 73.6 61.7 29.38 61.7 499 5384 811 3.57 0.00 0.00 0.000
10:56am 328 6 9 39 46 73.6 61.7 29.38 61.6 499 5242 811 3.51 0.00 0.00 0.000
10:57am 278 3 9 39 45 73.6 61.8 29.39 61.8 498 5386 817 3.55 0.00 0.00 0.000
10:58am 320 3 9 39 50 73.6 61.8 29.39 61.8 498 4704 817 3.49 0.00 0.00 0.000
10:59am 327 2 9 39 46 73.6 61.8 29.38 61.8 499 5245 818 3.43 0.00 0.00 0.000
11:00am 331 1 9 39 49 73.6 61.9 29.38 61.9 500 4838 825 3.47 0.00 0.00 0.000
11:01am 331 1 2 39 51 73.6 62.0 29.38 62.0 499 4579 831 3.52 0.00 0.00 0.000
11:02am 331 1 2 39 49 73.6 62.2 29.38 62.2 500 4844 845 3.66 0.00 0.00 0.000
11:03am 310 3 3 39 48 73.6 62.4 29.39 62.4 497 4982 854 3.80 0.00 0.00 0.000
11:04am 183 2 3 39 48 73.6 62.5 29.39 62.5 496 4984 860 3.83 0.00 0.00 0.000
11:05am 14 2 3 39 47 73.6 62.7 29.38 62.7 500 5125 877 3.96 0.00 0.00 0.000
11:06am 300 3 3 39 47 73.6 62.8 29.38 62.8 500 5127 885 4.00 0.00 0.00 0.000
11:07am 208 1 3 39 47 73.6 63.0 29.38 63.0 499 5132 896 4.13 0.00 0.00 0.000
11:08am 236 4 5 39 48 73.6 63.2 29.38 63.2 501 4999 912 4.26 0.00 0.00 0.000
11:09am 252 1 5 39 48 73.6 63.3 29.38 63.3 502 5001 920 4.29 0.00 0.00 0.000
11:10am 237 3 5 39 50 73.6 63.4 29.38 63.4 500 4736 924 4.31 0.00 0.00 0.000
11:11am 167 4 6 39 47 73.6 63.5 29.38 63.5 500 5142 929 4.34 0.00 0.00 0.000
11:12am 316 5 9 39 45 73.6 63.4 29.38 63.4 500 5422 923 4.17 0.00 0.00 0.000
11:13am 33 3 9 39 45 73.6 63.3 29.39 63.3 497 5420 913 4.00 0.00 0.00 0.000
11:14am 318 3 9 39 45 73.6 63.2 29.38 63.2 502 5418 913 3.84 0.00 0.00 0.000
11:15am 300 4 9 39 47 73.6 63.2 29.38 63.2 501 5136 912 3.77 0.00 0.00 0.000
11:16am 252 3 11 39 45 73.6 63.0 29.38 63.0 501 5413 899 3.51 0.00 0.00 0.000
11:17am 189 3 11 39 46 73.6 63.0 29.38 63.0 500 5271 898 3.46 0.00 0.00 0.000
11:18am 289 2 11 39 45 73.6 62.9 29.38 62.9 503 5411 895 3.30 0.00 0.00 0.000
11:19am 327 1 11 39 46 73.6 62.8 29.38 62.8 500 5267 885 3.15 0.00 0.00 0.000
11:20am 324 4 11 39 46 73.6 62.9 29.38 62.9 503 5269 895 3.19 0.00 0.00 0.000
11:21am 318 0 4 39 46 73.6 62.9 29.38 62.9 504 5269 896 3.14 0.00 0.00 0.000
11:22am 317 1 4 39 48 73.6 62.9 29.38 62.9 504 4992 896 3.09 0.00 0.00 0.000
11:23am 327 3 4 39 49 73.6 63.0 29.38 63.0 505 4860 904 3.14 0.00 0.00 0.000
11:24am 310 5 6 39 47 73.6 63.1 29.38 63.1 501 5134 906 3.18 0.00 0.00 0.000
11:25am 12 3 9 39 46 73.6 63.1 29.38 63.1 504 5273 909 3.13 0.00 0.00 0.000
11:26am 316 3 4 39 45 73.6 63.1 29.38 63.1 504 5416 909 3.08 0.00 0.00 0.000
11:27am 3 3 6 39 47 73.6 63.2 29.38 63.2 503 5136 914 3.13 0.00 0.00 0.000
11:28am 64 3 16 39 45 73.6 63.1 29.38 63.1 500 5416 904 2.98 0.00 0.00 0.000
11:29am 310 3 16 39 48 73.6 63.1 29.38 63.1 502 4997 907 2.93 0.00 0.00 0.000
11:30am 203 9 16 39 45 73.6 63.1 29.38 62.5 505 5416 910 2.88 0.00 0.00 0.000
11:31am 252 3 9 39 46 73.6 63.0 29.38 63.0 505 5271 904 2.73 0.00 0.00 0.000
11:32am 337 2 9 39 48 73.6 63.1 29.38 63.1 505 4997 910 2.79 0.00 0.00 0.000
11:33am 266 4 9 39 47 73.6 63.0 29.38 63.0 505 5132 904 2.64 0.00 0.00 0.000
11:34am 315 6 9 39 48 73.6 63.1 29.38 63.1 505 4997 910 2.69 0.00 0.00 0.000
11:35am 271 4 9 39 48 73.6 63.2 29.38 63.2 504 4999 916 2.75 0.00 0.00 0.000
11:36am 232 8 9 39 45 73.6 63.2 29.38 62.8 505 5418 917 2.70 0.00 0.00 0.000
11:37am 318 8 13 39 45 73.6 63.1 29.38 62.7 505 5416 910 2.56 0.00 0.00 0.000
11:38am 283 6 13 39 44 73.6 63.1 29.38 63.1 505 5561 910 2.52 0.00 0.00 0.000
11:39am 327 1 13 39 44 73.6 63.0 29.38 63.0 507 5558 906 2.38 0.00 0.00 0.000
11:40am 310 4 13 39 45 73.6 63.0 29.38 63.0 506 5413 905 2.34 0.00 0.00 0.000
11:41am 295 4 4 39 47 73.6 63.0 29.38 63.0 507 5132 906 2.30 0.00 0.00 0.000
11:42am 273 2 5 39 47 73.6 63.1 29.38 63.1 507 5134 912 2.36 0.00 0.00 0.000
11:43am 40 2 8 39 46 73.6 63.2 29.37 63.2 508 5276 920 2.42 0.00 0.00 0.000
11:44am 258 6 8 39 46 73.6 63.2 29.37 63.2 510 5276 922 2.38 0.00 0.00 0.000
11:45am 30 3 8 39 45 73.6 63.1 29.38 63.1 506 5416 911 2.24 0.00 0.00 0.000
11:46am 310 5 6 39 45 73.6 63.2 29.37 63.2 510 5418 922 2.30 0.00 0.00 0.000
11:47am 283 3 6 39 45 73.6 63.2 29.37 63.2 512 5418 925 2.27 0.00 0.00 0.000
11:48am 310 2 6 39 45 73.6 63.2 29.37 63.2 512 5418 925 2.23 0.00 0.00 0.000
11:49am 310 2 6 39 46 73.6 63.3 29.37 63.3 512 5278 932 2.29 0.00 0.00 0.000
11:50am 331 1 6 39 48 73.6 63.4 29.37 63.4 512 5003 939 2.35 0.00 0.00 0.000
11:51am 327 2 4 39 48 73.6 63.5 29.37 63.5 511 5005 943 2.41 0.00 0.00 0.000
11:52am 317 4 6 39 50 73.6 63.7 29.37 63.7 511 4742 956 2.57 0.00 0.00 0.000
11:53am 326 4 10 39 51 73.6 63.9 29.37 63.9 513 4616 972 2.73 0.00 0.00 0.000
11:54am 316 3 10 39 48 73.6 64.1 29.37 64.1 516 5018 989 2.88 0.00 0.00 0.000
11:55am 316 2 10 39 46 73.6 64.2 29.37 64.2 516 5298 995 2.93 0.00 0.00 0.000
11:56am 208 7 8 39 45 73.6 64.4 29.36 64.4 520 5445 1013 3.08 0.00 0.00 0.000
11:57am 20 2 8 39 47 73.6 64.5 29.36 64.5 518 5164 1017 3.13 0.00 0.00 0.000
11:58am 95 3 8 39 44 73.6 64.5 29.36 64.5 520 5594 1019 3.08 0.00 0.00 0.000
11:59am 345 1 8 39 45 73.6 64.5 29.36 64.5 519 5448 1018 3.03 0.00 0.00 0.000
12:00pm 346 2 8 39 44 73.6 64.6 29.36 64.6 519 5596 1024 3.07 0.00 0.00 0.000
12:01pm 10 2 2 39 44 73.6 64.7 29.36 64.7 519 5598 1031 3.12 0.00 0.00 0.000
12:02pm 220 2 3 39 44 73.6 64.7 29.36 64.7 519 5598 1031 3.07 0.00 0.00 0.000
12:03pm 300 5 5 39 47 73.6 64.8 29.36 64.8 520 5170 1038 3.12 0.00 0.00 0.000
12:04pm 315 7 7 39 44 73.6 64.8 29.36 64.8 520 5601 1038 3.07 0.00 0.00 0.000
12:05pm 9 3 7 39 43 73.6 64.8 29.36 64.8 520 5750 1038 3.02 0.00 0.00 0.000
12:06pm 317 4 6 39 43 73.6 64.8 29.37 64.8 517 5750 1035 2.97 0.00 0.00 0.000
12:07pm 320 5 7 39 44 73.6 64.7 29.36 64.7 520 5598 1032 2.82 0.00 0.00 0.000
12:08pm 192 2 7 39 43 73.6 64.5 29.36 64.5 520 5742 1019 2.57 0.00 0.00 0.000
12:09pm 322 2 7 39 44 73.6 64.5 29.36 64.5 520 5594 1019 2.53 0.00 0.00 0.000
12:10pm 264 3 7 39 44 73.6 64.4 29.36 64.4 521 5591 1014 2.39 0.00 0.00 0.000
12:11pm 182 2 5 39 45 73.6 64.4 29.36 64.4 521 5445 1014 2.35 0.00 0.00 0.000
12:12pm 274 2 5 39 44 73.6 64.4 29.36 64.4 520 5591 1013 2.31 0.00 0.00 0.000
12:13pm 197 1 5 39 45 73.6 64.5 29.36 64.5 521 5448 1020 2.38 0.00 0.00 0.000
12:14pm 183 1 5 39 47 73.6 64.6 29.36 64.6 521 5166 1027 2.43 0.00 0.00 0.000
12:15pm 251 5 5 39 48 73.6 64.9 29.36 64.9 520 5035 1045 2.69 0.00 0.00 0.000
12:16pm 275 5 5 39 44 73.6 65.0 29.36 65.0 519 5605 1050 2.75 0.00 0.00 0.000
12:17pm 273 5 6 39 43 73.6 64.9 29.36 64.9 519 5752 1044 2.60 0.00 0.00 0.000
12:18pm 295 2 9 39 43 73.6 64.8 29.36 64.8 520 5750 1038 2.46 0.00 0.00 0.000
12:19pm 291 3 9 39 44 73.6 64.6 29.36 64.6 521 5596 1027 2.22 0.00 0.00 0.000
12:20pm 137 1 9 39 45 73.6 64.5 29.36 64.5 521 5448 1020 2.09 0.00 0.00 0.000
12:21pm 232 1 3 39 47 73.6 64.6 29.36 64.6 521 5166 1027 2.15 0.00 0.00 0.000
12:22pm 218 3 4 39 44 73.6 64.7 29.36 64.7 521 5598 1033 2.21 0.00 0.00 0.000
12:23pm 197 5 9 39 45 73.6 64.8 29.36 64.8 521 5454 1040 2.28 0.00 0.00 0.000
12:24pm 209 3 9 39 45 73.6 64.9 29.36 64.9 520 5457 1045 2.34 0.00 0.00 0.000
12:25pm 268 4 9 39 42 73.6 64.9 29.36 64.9 521 5904 1046 2.30 0.00 0.00 0.000
12:26pm 193 1 4 39 43 73.6 64.9 29.36 64.9 522 5752 1047 2.26 0.00 0.00 0.000
12:27pm 300 3 4 39 44 73.6 65.0 29.36 65.0 522 5605 1054 2.32 0.00 0.00 0.000
12:28pm 310 3 6 39 44 73.6 65.0 29.36 65.0 525 5605 1058 2.29 0.00 0.00 0.000
12:29pm 310 1 6 39 44 73.6 65.0 29.36 65.0 523 5605 1055 2.25 0.00 0.00 0.000
12:30pm 355 2 6 39 46 73.6 65.0 29.36 65.0 523 5315 1055 2.21 0.00 0.00 0.000
12:31pm 247 1 3 39 46 73.6 65.2 29.36 65.2 525 5320 1071 2.37 0.00 0.00 0.000
12:32pm 233 3 3 39 46 73.6 65.3 29.36 65.3 525 5322 1078 2.43 0.00 0.00 0.000
12:33pm 231 3 6 39 47 73.6 65.6 29.35 65.6 527 5188 1099 2.69 0.00 0.00 0.000
12:34pm 254 3 6 39 46 73.6 65.9 29.35 65.9 527 5336 1119 2.94 0.00 0.00 0.000
12:35pm 6 1 6 39 44 73.6 66.1 29.35 66.1 529 5631 1134 3.09 0.00 0.00 0.000
12:36pm 351 4 5 39 44 73.6 66.2 29.35 66.2 528 5633 1139 3.14 0.00 0.00 0.000
12:37pm 305 4 5 39 44 73.6 66.4 29.35 66.4 530 5638 1154 3.28 0.00 0.00 0.000
12:38pm 177 3 5 39 45 73.6 66.6 29.35 66.6 531 5496 1168 3.43 0.00 0.00 0.000
12:39pm 214 4 6 39 46 73.6 66.7 29.35 66.7 528 5353 1171 3.47 0.00 0.00 0.000
12:40pm 258 2 6 39 45 73.6 66.8 29.35 66.8 529 5500 1179 3.52 0.00 0.00 0.000
12:41pm 175 4 6 39 43 73.6 66.9 29.36 66.9 523 5800 1177 3.56 0.00 0.00 0.000
12:42pm 210 6 9 39 41 73.6 66.8 29.36 66.8 525 6108 1174 3.40 0.00 0.00 0.000
12:43pm 216 2 9 38 41 73.6 66.6 29.35 66.6 528 6103 1165 3.14 0.00 0.00 0.000
12:44pm 283 2 9 38 41 73.6 66.6 29.35 66.6 530 6103 1167 3.09 0.00 0.00 0.000
12:45pm 251 2 9 38 41 73.6 66.4 29.35 66.4 530 6098 1154 2.84 0.00 0.00 0.000
12:46pm 277 3 3 39 42 73.6 66.4 29.35 66.4 532 5941 1157 2.80 0.00 0.00 0.000
12:47pm 293 3 4 39 45 73.6 66.4 29.35 66.4 532 5491 1157 2.75 0.00 0.00 0.000
12:48pm 293 1 4 38 44 73.6 66.5 29.35 66.5 531 5640 1162 2.80 0.00 0.00 0.000
12:49pm 331 3 8 39 45 73.6 66.6 29.35 66.6 533 5496 1171 2.86 0.00 0.00 0.000
12:50pm 325 5 8 39 43 73.6 66.6 29.35 66.6 532 5793 1169 2.81 0.00 0.00 0.000
12:51pm 293 2 5 38 41 73.6 66.6 29.35 66.6 532 6103 1169 2.76 0.00 0.00 0.000
12:52pm 270 2 9 39 40 73.6 66.6 29.35 66.6 532 6263 1169 2.71 0.00 0.00 0.000
12:53pm 270 1 9 39 44 73.6 66.6 29.35 66.6 533 5643 1171 2.67 0.00 0.00 0.000
12:54pm 281 3 9 38 42 73.6 66.5 29.35 66.5 530 5944 1161 2.53 0.00 0.00 0.000
12:55pm 310 3 9 38 43 73.6 66.5 29.35 66.5 531 5791 1162 2.48 0.00 0.00 0.000
12:56pm 310 1 3 38 45 73.6 66.5 29.35 66.5 531 5493 1162 2.44 0.00 0.00 0.000
12:57pm 347 1 4 38 45 73.6 66.7 29.35 66.7 533 5498 1177 2.60 0.00 0.00 0.000
12:58pm 343 2 4 39 46 73.6 66.8 29.35 66.8 533 5356 1183 2.66 0.00 0.00 0.000
12:59pm 343 2 6 38 44 73.6 67.0 29.35 67.0 534 5652 1197 2.81 0.00 0.00 0.000
1:00pm 324 2 6 39 41 73.6 67.1 29.35 67.1 532 6116 1202 2.86 0.00 0.00 0.000
1:01pm 340 2 4 39 43 73.6 67.1 29.35 67.1 532 5805 1202 2.82 0.00 0.00 0.000
1:02pm 250 4 5 38 44 73.6 67.1 29.35 67.1 531 5654 1200 2.77 0.00 0.00 0.000
1:03pm 176 2 5 38 41 73.6 67.1 29.35 67.1 533 6116 1203 2.72 0.00 0.00 0.000
1:04pm 331 7 7 39 43 73.6 67.1 29.35 67.1 530 5805 1199 2.68 0.00 0.00 0.000
1:05pm 264 7 7 39 41 73.6 67.1 29.35 67.1 531 6116 1200 2.63 0.00 0.00 0.000
1:06pm 300 2 7 38 42 73.6 67.0 29.35 67.0 531 5956 1194 2.49 0.00 0.00 0.000
1:07pm 185 2 7 38 43 73.6 67.0 29.35 67.0 532 5803 1195 2.45 0.00 0.00 0.000
1:08pm 181 5 9 39 41 73.6 66.9 29.35 66.9 534 6110 1191 2.31 0.00 0.00 0.000
1:09pm 305 3 9 39 42 73.6 66.7 29.35 66.7 534 5949 1178 2.08 0.00 0.00 0.000
1:10pm 300 4 9 38 43 73.6 66.6 29.35 66.6 535 5793 1173 1.94 0.00 0.00 0.000
1:11pm 310 3 4 38 42 73.6 66.4 29.35 66.4 535 5941 1160 1.71 0.00 0.00 0.000
1:12pm 288 3 7 38 43 73.6 66.2 29.35 66.2 535 5783 1147 1.49 0.00 0.00 0.000
1:13pm 318 3 7 39 43 73.6 66.1 29.35 66.1 535 5781 1141 1.36 0.00 0.00 0.000
1:14pm 354 2 7 38 44 73.6 66.1 29.35 66.1 535 5631 1141 1.34 0.00 0.00 0.000
1:15pm 354 3 7 39 46 73.6 66.1 29.35 66.1 536 5340 1142 1.32 0.00 0.00 0.000
1:16pm 191 4 4 38 47 73.6 66.1 29.35 66.1 535 5199 1141 1.30 0.00 0.00 0.000
1:17pm 207 7 7 38 43 73.6 66.1 29.35 66.1 536 5781 1142 1.27 0.00 0.00 0.000
1:18pm 342 5 7 38 45 73.6 66.2 29.35 66.2 536 5486 1148 1.35 0.00 0.00 0.000
1:19pm 334 3 8 38 42 73.6 66.4 29.35 66.4 536 5941 1161 1.53 0.00 0.00 0.000
1:20pm 333 2 8 38 42 73.6 66.4 29.35 66.4 536 5941 1161 1.50 0.00 0.00 0.000
1:21pm 272 4 4 38 42 73.6 66.4 29.35 66.4 535 5941 1160 1.48 0.00 0.00 0.000
1:22pm 320 3 8 38 43 73.6 66.5 29.35 66.5 536 5791 1168 1.55 0.00 0.00 0.000
1:23pm 318 3 8 38 44 73.6 66.5 29.35 66.5 536 5640 1168 1.53 0.00 0.00 0.000
1:24pm 346 3 8 39 41 73.6 66.6 29.35 66.6 536 6103 1174 1.60 0.00 0.00 0.000
1:25pm 343 2 8 38 43 73.6 66.8 29.35 66.8 536 5798 1187 1.77 0.00 0.00 0.000
1:26pm 300 2 3 38 42 73.6 66.9 29.35 66.9 536 5954 1193 1.84 0.00 0.00 0.000
1:27pm 317 1 3 39 43 73.6 67.0 29.35 67.0 536 5803 1200 1.91 0.00 0.00 0.000
1:28pm 256 5 5 38 43 73.6 67.2 29.34 67.2 536 5807 1214 2.08 0.00 0.00 0.000
1:29pm 288 3 7 39 42 73.6 67.2 29.35 67.2 536 5961 1213 2.04 0.00 0.00 0.000
1:30pm 267 2 7 38 43 73.6 67.3 29.35 67.3 536 5810 1219 2.11 0.00 0.00 0.000
1:31pm 347 2 4 39 43 73.6 67.4 29.35 67.4 536 5812 1225 2.17 0.00 0.00 0.000
1:32pm 346 3 4 39 42 73.6 67.5 29.35 67.5 536 5969 1232 2.24 0.00 0.00 0.000
1:33pm 24 2 6 38 41 73.6 67.6 29.35 67.6 536 6128 1238 2.30 0.00 0.00 0.000
1:34pm 337 5 6 38 40 73.6 67.8 29.34 67.8 536 6294 1252 2.46 0.00 0.00 0.000
1:35pm 300 4 6 38 40 73.6 67.8 29.34 67.8 536 6294 1252 2.42 0.00 0.00 0.000
1:36pm 300 3 16 38 38 73.6 67.7 29.34 67.7 536 6624 1246 2.28 0.00 0.00 0.000
1:37pm 1 2 16 38 40 73.6 67.5 29.35 67.5 536 6286 1232 2.04 0.00 0.00 0.000
1:38pm 15 3 16 38 38 73.6 67.2 29.34 67.2 536 6610 1214 1.71 0.00 0.00 0.000
1:39pm 310 2 16 38 39 73.6 67.0 29.34 67.0 536 6437 1201 1.48 0.00 0.00 0.000
1:40pm 314 4 16 38 42 73.8 66.7 29.35 66.7 536 5949 1180 1.16 0.00 0.00 0.000
1:41pm 275 2 4 39 41 73.6 66.5 29.35 66.5 536 6100 1168 0.95 0.00 0.00 0.000
1:42pm 181 3 5 38 42 73.6 66.2 29.35 66.2 536 5936 1148 0.63 0.00 0.00 0.000
1:43pm 324 2 5 38 43 73.6 66.0 29.35 66.0 536 5779 1135 0.42 0.00 0.00 0.000
1:44pm 324 2 5 38 42 73.6 65.9 29.35 65.9 536 5929 1129 0.32 0.00 0.00 0.000
1:45pm 324 0 5 38 43 73.6 65.8 29.34 65.8 536 5774 1124 0.21 0.00 0.00 0.000
1:46pm 310 4 4 38 43 73.6 65.9 29.34 65.9 536 5776 1130 0.31 0.00 0.00 0.000
1:47pm 323 1 4 38 43 73.6 65.9 29.34 65.9 537 5776 1131 0.30 0.00 0.00 0.000
1:48pm 322 3 4 38 44 73.6 65.9 29.34 65.9 538 5626 1132 0.30 0.00 0.00 0.000
1:49pm 343 4 4 39 46 73.6 65.9 29.34 65.9 539 5336 1133 0.29 0.00 0.00 0.000
1:50pm 16 3 5 38 47 73.6 66.1 29.34 66.1 536 5199 1143 0.49 0.00 0.00 0.000
1:51pm 247 6 6 38 48 73.6 66.3 29.34 66.3 536 5064 1156 0.68 0.00 0.00 0.000
1:52pm 327 3 9 38 43 73.6 66.3 29.34 66.3 539 5786 1159 0.67 0.00 0.00 0.000
1:53pm 314 2 9 39 45 73.6 66.5 29.34 66.5 538 5493 1171 0.85 0.00 0.00 0.000
1:54pm 349 1 9 38 44 73.6 66.8 29.34 66.8 540 5647 1192 1.14 0.00 0.00 0.000
1:55pm 324 2 9 38 46 73.6 67.0 29.34 67.0 540 5360 1205 1.32 0.00 0.00 0.000
1:56pm 208 4 4 38 43 73.6 67.3 29.34 67.3 543 5810 1228 1.59 0.00 0.00 0.000
1:57pm 354 4 7 39 41 73.6 67.5 29.33 67.5 547 6126 1245 1.76 0.00 0.00 0.000
1:58pm 300 0 7 38 41 73.6 67.6 29.33 67.6 548 6128 1253 1.83 0.00 0.00 0.000
1:59pm 269 5 7 38 43 73.6 67.7 29.33 67.7 548 5820 1261 1.90 0.00 0.00 0.000
2:00pm 108 3 13 38 43 73.6 67.7 29.33 67.7 548 5820 1259 1.87 0.00 0.00 0.000
2:01pm 161 3 5 38 41 73.6 67.7 29.33 67.7 548 6131 1259 1.84 0.00 0.00 0.000
2:02pm 328 0 5 38 42 73.6 67.7 29.33 67.7 546 5974 1257 1.81 0.00 0.00 0.000
2:03pm 328 1 5 38 41 73.8 67.8 29.33 67.8 547 6133 1265 1.88 0.00 0.00 0.000
2:04pm 300 3 5 38 41 73.8 67.9 29.34 67.9 544 6136 1268 1.95 0.00 0.00 0.000
2:05pm 264 4 9 38 42 73.8 67.9 29.34 67.9 541 5978 1264 1.91 0.00 0.00 0.000
2:06pm 68 4 6 38 41 73.8 67.9 29.34 67.9 545 6136 1269 1.88 0.00 0.00 0.000
2:07pm 356 3 7 39 39 73.8 67.8 29.34 67.8 541 6459 1258 1.75 0.00 0.00 0.000
2:08pm 329 2 7 39 41 73.8 67.7 29.33 67.7 547 6131 1258 1.63 0.00 0.00 0.000
2:09pm 334 1 7 38 40 73.8 67.6 29.33 67.6 548 6289 1253 1.50 0.00 0.00 0.000
2:10pm 192 7 7 38 43 73.8 67.5 29.33 67.5 547 5815 1245 1.38 0.00 0.00 0.000
2:11pm 83 3 7 38 41 73.8 67.3 29.33 67.3 547 6121 1233 1.15 0.00 0.00 0.000
2:12pm 103 4 7 39 42 73.8 67.2 29.33 67.2 548 5961 1227 1.04 0.00 0.00 0.000
2:13pm 206 5 7 38 41 73.8 67.1 29.33 67.1 549 6116 1223 0.92 0.00 0.00 0.000
2:14pm 232 2 7 38 41 73.8 66.9 29.33 66.9 548 6110 1209 0.71 0.00 0.00 0.000
2:15pm 255 3 7 38 41 73.8 66.9 29.33 66.9 548 6110 1209 0.70 0.00 0.00 0.000
2:16pm 136 5 6 38 43 73.8 67.0 29.33 67.0 549 5803 1217 0.78 0.00 0.00 0.000
2:17pm 261 2 6 39 43 73.8 67.2 29.33 67.2 549 5807 1230 0.97 0.00 0.00 0.000
2:18pm 158 2 6 38 43 73.8 67.4 29.33 67.4 549 5812 1242 1.15 0.00 0.00 0.000
2:19pm 158 1 6 38 43 73.8 67.6 29.33 67.6 549 5817 1255 1.33 0.00 0.00 0.000
2:20pm 48 5 6 38 41 73.8 67.8 29.33 67.8 549 6133 1268 1.51 0.00 0.00 0.000
2:21pm 129 2 5 38 41 73.8 68.0 29.33 68.0 550 6138 1282 1.68 0.00 0.00 0.000
2:22pm 280 5 7 39 42 73.8 68.1 29.33 68.1 549 5983 1287 1.75 0.00 0.00 0.000
2:23pm 305 5 7 38 42 73.8 68.2 29.33 68.2 549 5986 1294 1.82 0.00 0.00 0.000
2:24pm 287 4 7 38 44 73.8 68.3 29.33 68.3 548 5683 1299 1.89 0.00 0.00 0.000
2:25pm 280 4 7 38 40 73.8 68.4 29.33 68.4 549 6310 1307 1.96 0.00 0.00 0.000
2:26pm 27 7 11 38 39 73.8 68.4 29.33 68.4 549 6475 1307 1.92 0.00 0.00 0.000
2:27pm 19 5 11 38 39 73.8 68.2 29.33 68.2 549 6469 1294 1.69 0.00 0.00 0.000
2:28pm 26 1 11 38 39 73.8 68.1 29.33 68.1 549 6467 1287 1.57 0.00 0.00 0.000
2:29pm 287 3 11 38 41 73.8 68.1 29.33 68.1 549 6141 1287 1.54 0.00 0.00 0.000
2:30pm 250 2 11 38 40 73.8 68.1 29.33 68.1 549 6302 1287 1.52 0.00 0.00 0.000
2:31pm 276 1 4 39 40 73.8 68.1 29.33 68.1 548 6302 1286 1.49 0.00 0.00 0.000
2:32pm 254 2 4 38 40 73.8 68.1 29.33 68.1 549 6302 1287 1.47 0.00 0.00 0.000
2:33pm 255 1 4 38 41 73.8 68.1 29.33 68.1 549 6141 1287 1.44 0.00 0.00 0.000
2:34pm 300 2 4 38 42 73.8 68.1 29.33 68.1 549 5983 1287 1.42 0.00 0.00 0.000
2:35pm 358 4 4 38 42 73.8 68.2 29.33 68.2 549 5986 1294 1.49 0.00 0.00 0.000
2:36pm 4 4 5 38 40 73.8 68.2 29.33 68.2 549 6305 1294 1.47 0.00 0.00 0.000
2:37pm 272 5 8 38 40 73.8 68.2 29.33 68.2 549 6305 1294 1.44 0.00 0.00 0.000
2:38pm 135 3 8 38 40 73.8 68.1 29.33 68.1 550 6302 1288 1.32 0.00 0.00 0.000
2:39pm 351 3 8 38 41 73.8 67.9 29.33 67.9 550 6136 1276 1.10 0.00 0.00 0.000
2:40pm 241 5 8 38 41 73.8 67.9 29.33 67.9 550 6136 1276 1.08 0.00 0.00 0.000
2:41pm 280 4 5 38 42 73.8 67.8 29.33 67.8 549 5976 1268 0.97 0.00 0.00 0.000
2:42pm 346 3 7 38 41 73.8 67.8 29.33 67.8 550 6133 1269 0.95 0.00 0.00 0.000
2:43pm 291 5 7 38 41 73.8 67.8 29.33 67.8 550 6133 1269 0.93 0.00 0.00 0.000
2:44pm 300 4 7 40 41 73.8 67.7 29.33 67.7 549 6131 1262 0.82 0.00 0.00 0.000
2:45pm 348 3 10 38 41 73.8 67.5 29.33 67.5 550 6126 1250 0.61 0.00 0.00 0.000
2:46pm 294 5 6 38 41 73.8 67.4 29.33 67.4 549 6123 1242 0.50 0.00 0.00 0.000
2:47pm 326 3 6 38 42 73.8 67.3 29.33 67.3 549 5964 1236 0.39 0.00 0.00 0.000
2:48pm 277 5 6 38 42 73.8 67.1 29.33 67.1 549 5959 1223 0.19 0.00 0.00 0.000
2:49pm 281 1 6 38 41 73.8 66.9 29.33 66.9 549 6110 1210 -0.01 0.00 0.00 0.000
2:50pm 281 0 6 38 43 73.8 66.8 29.33 66.8 550 5798 1205 -0.11 0.00 0.00 0.000
2:51pm 216 1 1 38 43 73.8 66.8 29.33 66.8 550 5798 1205 -0.11 0.00 0.00 0.000
2:52pm 217 2 3 38 43 73.8 66.8 29.33 66.8 551 5798 1206 -0.11 0.00 0.00 0.000
2:53pm 264 2 6 38 41 73.8 66.9 29.33 66.9 552 6110 1214 -0.01 0.00 0.00 0.000
2:54pm 310 7 7 38 41 73.8 67.1 29.33 67.1 554 6116 1229 0.19 0.00 0.00 0.000
2:55pm 345 3 7 38 41 73.8 67.2 29.33 67.2 554 6118 1235 0.29 0.00 0.00 0.000
2:56pm 346 2 3 38 41 73.8 67.2 29.32 67.2 555 6118 1236 0.28 0.00 0.00 0.000
2:57pm 224 2 4 38 41 73.8 67.4 29.33 67.4 554 6123 1248 0.48 0.00 0.00 0.000
2:58pm 160 3 4 38 42 73.8 67.6 29.32 67.6 556 5971 1263 0.67 0.00 0.00 0.000
2:59pm 240 4 8 38 41 73.8 67.6 29.33 67.6 554 6128 1261 0.66 0.00 0.00 0.000
3:00pm 237 0 8 38 41 73.8 67.7 29.32 67.7 556 6131 1270 0.75 0.00 0.00 0.000
3:01pm 218 3 5 38 41 73.8 67.7 29.32 67.7 557 6131 1271 0.73 0.00 0.00 0.000
3:02pm 218 2 5 38 42 73.8 67.8 29.32 67.8 559 5976 1279 0.82 0.00 0.00 0.000
3:03pm 291 1 6 38 43 73.8 67.8 29.32 67.8 558 5822 1278 0.81 0.00 0.00 0.000
3:04pm 23 2 6 38 42 73.8 67.8 29.32 67.8 558 5976 1278 0.79 0.00 0.00 0.000
3:05pm 105 3 6 38 42 73.8 67.7 29.32 67.7 560 5974 1275 0.68 0.00 0.00 0.000
3:06pm 264 5 5 38 44 73.8 67.7 29.32 67.7 560 5669 1275 0.67 0.00 0.00 0.000
3:07pm 281 3 6 38 40 73.8 67.6 29.32 67.6 561 6289 1270 0.56 0.00 0.00 0.000
3:08pm 286 2 6 38 42 73.8 67.4 29.32 67.4 560 5966 1255 0.35 0.00 0.00 0.000
3:09pm 258 6 6 38 41 73.8 67.4 29.32 67.4 558 6123 1253 0.35 0.00 0.00 0.000
3:10pm 136 5 9 38 41 73.8 67.2 29.32 67.2 558 6118 1240 0.14 0.00 0.00 0.000
3:11pm 289 1 6 38 42 73.8 67.2 29.32 67.2 558 5961 1240 0.14 0.00 0.00 0.000
3:12pm 333 2 7 38 43 73.8 67.2 29.32 67.2 558 5807 1240 0.14 0.00 0.00 0.000
3:13pm 360 3 7 38 42 73.8 67.3 29.32 67.3 560 5964 1248 0.24 0.00 0.00 0.000
3:14pm 330 1 7 38 40 73.8 67.3 29.32 67.3 560 6281 1248 0.23 0.00 0.00 0.000
3:15pm 331 3 7 38 41 73.8 67.4 29.32 67.4 561 6123 1257 0.33 0.00 0.00 0.000
3:16pm 251 3 3 38 41 73.8 67.6 29.32 67.6 562 6128 1271 0.52 0.00 0.00 0.000
3:17pm 148 1 4 38 42 73.8 67.7 29.32 67.7 562 5974 1278 0.61 0.00 0.00 0.000
3:18pm 247 4 4 38 42 73.8 67.9 29.32 67.9 562 5978 1290 0.80 0.00 0.00 0.000
3:19pm 300 4 7 38 40 73.8 67.9 29.32 67.9 562 6297 1290 0.79 0.00 0.00 0.000
3:20pm 186 3 7 38 42 73.8 67.9 29.32 67.9 561 5978 1289 0.77 0.00 0.00 0.000
3:21pm 284 2 7 38 40 73.8 67.9 29.32 67.9 561 6297 1289 0.76 0.00 0.00 0.000
3:22pm 290 3 7 38 40 73.8 67.9 29.32 67.9 564 6297 1293 0.75 0.00 0.00 0.000
3:23pm 316 2 7 38 42 73.8 67.9 29.32 67.9 564 5978 1293 0.74 0.00 0.00 0.000
3:24pm 242 2 7 38 42 73.8 67.9 29.32 67.9 563 5978 1292 0.72 0.00 0.00 0.000
3:25pm 239 3 7 38 41 73.8 68.0 29.32 68.0 564 6138 1299 0.81 0.00 0.00 0.000
3:26pm 295 5 6 38 40 73.8 68.1 29.32 68.1 564 6302 1306 0.90 0.00 0.00 0.000
3:27pm 29 3 6 38 39 73.8 68.2 29.32 68.2 564 6469 1312 0.98 0.00 0.00 0.000
3:28pm 293 4 8 38 38 74.0 68.2 29.31 68.2 565 6638 1313 0.96 0.00 0.00 0.000
3:29pm 77 1 8 38 40 74.0 68.2 29.31 68.2 565 6305 1313 0.95 0.00 0.00 0.000
3:30pm 335 4 8 38 39 74.0 68.2 29.31 68.2 565 6469 1313 0.93 0.00 0.00 0.000
3:31pm 283 2 4 38 40 74.0 68.2 29.31 68.2 565 6305 1313 0.92 0.00 0.00 0.000
3:32pm 268 3 4 38 40 74.0 68.3 29.31 68.3 566 6307 1321 1.00 0.00 0.00 0.000
3:33pm 267 5 5 38 38 74.0 68.4 29.31 68.4 568 6643 1329 1.08 0.00 0.00 0.000
3:34pm 310 3 5 38 39 74.0 68.5 29.31 68.5 568 6477 1336 1.16 0.00 0.00 0.000
3:35pm 355 6 7 38 40 74.0 68.5 29.31 68.5 566 6312 1333 1.15 0.00 0.00 0.000
3:36pm 335 2 6 38 39 74.0 68.5 29.31 68.5 568 6477 1336 1.13 0.00 0.00 0.000
3:37pm 280 4 6 38 41 74.0 68.6 29.31 68.6 568 6154 1342 1.21 0.00 0.00 0.000
3:38pm 286 2 6 38 40 74.0 68.6 29.31 68.6 572 6315 1347 1.19 0.00 0.00 0.000
3:39pm 8 2 7 38 38 74.0 68.7 29.30 68.7 576 6651 1359 1.27 0.00 0.00 0.000
3:40pm 237 4 7 38 38 74.0 68.7 29.30 68.7 576 6651 1359 1.25 0.00 0.00 0.000
3:41pm 321 2 5 38 38 74.0 68.7 29.30 68.7 577 6651 1360 1.22 0.00 0.00 0.000
3:42pm 219 2 5 38 39 74.0 68.8 29.30 68.8 578 6485 1367 1.30 0.00 0.00 0.000
3:43pm 328 4 6 38 38 74.0 68.8 29.30 68.8 578 6654 1367 1.28 0.00 0.00 0.000
3:44pm 300 2 6 38 40 74.0 68.8 29.30 68.8 578 6320 1367 1.26 0.00 0.00 0.000
3:45pm 256 1 6 38 38 74.0 68.9 29.30 68.9 577 6657 1373 1.34 0.00 0.00 0.000
3:46pm 237 3 6 38 38 74.0 68.9 29.30 68.9 578 6657 1374 1.32 0.00 0.00 0.000
3:47pm 247 5 8 38 40 74.0 68.9 29.30 68.9 578 6323 1374 1.30 0.00 0.00 0.000
3:48pm 283 1 8 38 40 74.0 68.9 29.30 68.9 578 6323 1374 1.28 0.00 0.00 0.000
3:49pm 283 2 8 38 40 74.0 68.8 29.30 68.8 578 6320 1367 1.16 0.00 0.00 0.000
3:50pm 179 1 8 38 40 74.0 68.9 29.30 68.9 578 6323 1374 1.23 0.00 0.00 0.000
3:51pm 236 3 4 38 40 74.0 68.9 29.30 68.9 578 6323 1374 1.22 0.00 0.00 0.000
3:52pm 164 1 6 38 41 74.0 68.9 29.30 68.9 578 6161 1374 1.19 0.00 0.00 0.000
3:53pm 192 1 6 38 40 74.0 69.0 29.30 69.0 578 6325 1380 1.27 0.00 0.00 0.000
3:54pm 192 1 6 38 39 74.0 69.1 29.30 69.1 578 6493 1387 1.35 0.00 0.00 0.000
3:55pm 192 2 6 38 38 74.0 69.2 29.30 69.2 579 6665 1394 1.43 0.00 0.00 0.000
3:56pm 179 2 4 38 38 74.0 69.3 29.30 69.3 579 6668 1401 1.50 0.00 0.00 0.000
3:57pm 205 2 6 38 37 74.0 69.4 29.30 69.4 579 6844 1407 1.58 0.00 0.00 0.000
3:58pm 205 2 6 38 38 74.0 69.3 29.30 69.3 579 6668 1401 1.45 0.00 0.00 0.000
3:59pm 195 2 6 38 39 74.0 69.3 29.30 69.3 579 6499 1401 1.43 0.00 0.00 0.000
4:00pm 237 2 6 38 39 74.0 69.3 29.30 69.3 579 6499 1401 1.40 0.00 0.00 0.000
4:01pm 349 2 3 38 39 74.0 69.3 29.30 69.3 579 6499 1401 1.38 0.00 0.00 0.000
4:02pm 233 4 4 38 41 74.0 69.2 29.30 69.2 580 6169 1395 1.26 0.00 0.00 0.000
4:03pm 318 1 5 38 40 74.0 69.2 29.30 69.2 579 6331 1394 1.24 0.00 0.00 0.000
4:04pm 318 0 5 38 41 74.0 69.1 29.30 69.1 580 6166 1389 1.12 0.00 0.00 0.000
4:05pm 200 3 6 38 40 74.0 69.1 29.30 69.1 579 6328 1388 1.10 0.00 0.00 0.000
4:06pm 197 2 4 38 38 74.0 69.0 29.30 69.0 579 6660 1381 0.98 0.00 0.00 0.000
4:07pm 218 3 4 38 38 74.0 69.0 29.30 69.0 579 6660 1381 0.97 0.00 0.00 0.000
4:08pm 283 4 4 38 42 74.0 68.9 29.30 68.9 579 6003 1375 0.85 0.00 0.00 0.000
4:09pm 270 2 7 38 41 74.0 68.9 29.30 68.9 579 6161 1375 0.84 0.00 0.00 0.000
4:10pm 263 4 7 38 42 74.0 68.8 29.30 68.8 581 6001 1371 0.72 0.00 0.00 0.000
4:11pm 177 4 5 38 39 74.0 68.7 29.30 68.7 580 6483 1363 0.61 0.00 0.00 0.000
4:12pm 231 2 5 38 41 74.0 68.6 29.30 68.6 580 6154 1357 0.50 0.00 0.00 0.000
4:13pm 199 2 5 38 40 74.0 68.5 29.29 68.5 584 6312 1356 0.40 0.00 0.00 0.000
4:14pm 289 3 7 38 41 74.0 68.4 29.30 68.4 583 6149 1347 0.29 0.00 0.00 0.000
4:15pm 276 1 7 38 38 74.0 68.4 29.29 68.4 584 6643 1349 0.29 0.00 0.00 0.000
4:16pm 273 2 2 38 41 74.0 68.4 29.29 68.4 584 6149 1350 0.28 0.00 0.00 0.000
4:17pm 272 0 2 38 41 74.0 68.4 29.29 68.4 585 6149 1351 0.28 0.00 0.00 0.000
4:18pm 111 2 2 38 41 74.0 68.5 29.29 68.5 585 6151 1357 0.37 0.00 0.00 0.000
4:19pm 177 2 2 38 40 74.0 68.7 29.29 68.7 587 6318 1372 0.56 0.00 0.00 0.000
4:20pm 249 2 5 38 40 74.0 68.8 29.29 68.8 587 6320 1379 0.65 0.00 0.00 0.000
4:21pm 268 4 4 38 41 74.0 68.9 29.29 68.9 587 6161 1385 0.74 0.00 0.00 0.000
4:22pm 256 4 6 38 41 74.0 69.0 29.29 69.0 585 6164 1389 0.83 0.00 0.00 0.000
4:23pm 219 2 6 38 38 74.0 68.9 29.29 68.9 588 6657 1386 0.72 0.00 0.00 0.000
4:24pm 254 5 6 38 41 74.0 68.9 29.29 68.9 587 6161 1385 0.71 0.00 0.00 0.000
4:25pm 241 6 7 38 41 74.0 68.8 29.29 68.8 587 6159 1379 0.59 0.00 0.00 0.000
4:26pm 282 0 6 38 40 74.0 68.7 29.29 68.7 585 6318 1370 0.49 0.00 0.00 0.000
4:27pm 232 1 6 38 39 74.0 68.6 29.29 68.6 584 6480 1361 0.38 0.00 0.00 0.000
4:28pm 264 2 7 38 38 74.0 68.6 29.29 68.6 586 6649 1365 0.37 0.00 0.00 0.000
4:29pm 186 5 7 38 38 74.0 68.6 29.29 68.6 590 6649 1369 0.36 0.00 0.00 0.000
4:30pm 224 3 7 38 38 74.0 68.6 29.29 68.6 591 6649 1370 0.36 0.00 0.00 0.000
4:31pm 194 2 6 38 39 74.0 68.6 29.28 68.6 593 6480 1373 0.35 0.00 0.00 0.000
4:32pm 228 1 6 38 39 74.0 68.7 29.29 68.7 592 6483 1378 0.45 0.00 0.00 0.000
4:33pm 143 1 6 38 39 74.0 68.8 29.29 68.8 591 6485 1383 0.54 0.00 0.00 0.000
4:34pm 220 2 6 38 39 74.2 69.0 29.29 69.0 588 6491 1393 0.73 0.00 0.00 0.000
4:35pm 220 0 6 38 40 74.2 69.1 29.29 69.1 585 6328 1396 0.81 0.00 0.00 0.000
4:36pm 207 10 10 38 41 74.2 69.3 29.30 69.3 582 6172 1404 1.00 0.00 0.00 0.000
4:37pm 256 9 16 38 37 74.2 69.4 29.30 69.4 583 6844 1411 1.08 0.00 0.00 0.000
4:38pm 347 3 16 38 38 74.2 69.5 29.29 69.5 586 6673 1422 1.16 0.00 0.00 0.000
4:39pm 327 3 16 38 38 74.2 69.5 29.29 69.5 587 6673 1424 1.14 0.00 0.00 0.000
4:40pm 263 3 16 38 37 74.2 69.5 29.29 69.5 589 6847 1426 1.12 0.00 0.00 0.000
4:41pm 181 3 6 38 38 74.2 69.5 29.29 69.5 590 6673 1427 1.11 0.00 0.00 0.000
4:42pm 310 3 6 38 39 74.2 69.5 29.29 69.5 591 6504 1428 1.09 0.00 0.00 0.000
4:43pm 300 3 6 38 42 74.2 69.5 29.29 69.5 589 6018 1426 1.07 0.00 0.00 0.000
4:44pm 300 0 6 38 42 74.2 69.6 29.29 69.6 588 6021 1431 1.15 0.00 0.00 0.000
4:45pm 233 4 8 38 41 74.2 69.6 29.29 69.6 589 6179 1432 1.13 0.00 0.00 0.000
4:46pm 300 4 5 38 38 74.2 69.6 29.29 69.6 589 6676 1432 1.11 0.00 0.00 0.000
4:47pm 305 6 10 38 38 74.2 69.5 29.29 69.5 589 6673 1426 1.00 0.00 0.00 0.000
4:48pm 265 5 10 38 38 74.2 69.4 29.29 69.4 591 6671 1422 0.88 0.00 0.00 0.000
4:49pm 218 3 10 38 40 74.2 69.2 29.29 69.2 591 6331 1409 0.67 0.00 0.00 0.000
4:50pm 256 5 10 38 38 74.2 69.1 29.28 69.1 593 6662 1405 0.56 0.00 0.00 0.000
4:51pm 315 2 6 38 39 74.2 68.9 29.28 68.9 593 6488 1392 0.35 0.00 0.00 0.000
4:52pm 300 2 6 38 40 74.2 68.9 29.29 68.9 592 6323 1391 0.34 0.00 0.00 0.000
4:53pm 300 0 6 38 40 74.2 68.8 29.29 68.8 592 6320 1384 0.24 0.00 0.00 0.000
4:54pm 300 2 6 38 42 74.2 68.8 29.29 68.8 591 6001 1383 0.23 0.00 0.00 0.000
4:55pm 300 1 6 38 42 74.2 68.7 29.29 68.7 591 5998 1377 0.13 0.00 0.00 0.000
4:56pm 300 2 2 38 41 74.2 68.7 29.29 68.7 591 6156 1377 0.13 0.00 0.00 0.000
4:57pm 310 6 8 38 39 74.2 68.6 29.29 68.6 590 6480 1369 0.03 0.00 0.00 0.000
4:58pm 338 1 8 38 40 74.2 68.5 29.29 68.5 591 6312 1364 -0.07 0.00 0.00 0.000
4:59pm 359 4 8 38 42 74.2 68.4 29.29 68.4 590 5991 1357 -0.17 0.00 0.00 0.000
5:00pm 237 4 8 38 40 74.2 68.4 29.29 68.4 591 6310 1358 -0.17 0.00 0.00 0.000
5:01pm 260 3 4 38 38 74.2 68.2 29.29 68.2 591 6638 1345 -0.36 0.00 0.00 0.000
5:02pm 321 3 4 38 38 74.2 68.2 29.29 68.2 591 6638 1345 -0.36 0.00 0.00 0.000
5:03pm 322 2 4 38 37 74.2 68.1 29.29 68.1 592 6807 1340 -0.45 0.00 0.00 0.000
5:04pm 154 2 4 38 38 74.2 68.0 29.29 68.0 591 6632 1332 -0.54 0.00 0.00 0.000
5:05pm 258 4 4 38 38 74.2 68.0 29.29 68.0 591 6632 1332 -0.53 0.00 0.00 0.000
5:06pm 350 0 4 38 38 74.2 68.1 29.28 68.1 593 6635 1341 -0.43 0.00 0.00 0.000
5:07pm 249 3 4 38 38 74.2 68.1 29.28 68.1 593 6635 1341 -0.42 0.00 0.00 0.000
5:08pm 255 2 4 38 39 74.2 68.1 29.29 68.1 592 6467 1340 -0.41 0.00 0.00 0.000
5:09pm 21 3 5 38 39 74.2 68.2 29.28 68.2 593 6469 1347 -0.31 0.00 0.00 0.000
5:10pm 187 6 6 38 38 74.2 68.3 29.28 68.3 593 6640 1354 -0.20 0.00 0.00 0.000
5:11pm 54 2 6 38 39 74.2 68.5 29.28 68.5 593 6477 1366 0.00 0.00 0.00 0.000
5:12pm 274 3 6 38 40 74.2 68.6 29.28 68.6 593 6315 1373 0.10 0.00 0.00 0.000
5:13pm 300 5 8 38 40 74.2 68.6 29.29 68.6 592 6315 1372 0.10 0.00 0.00 0.000
5:14pm 266 3 8 38 39 74.2 68.7 29.29 68.7 592 6483 1378 0.20 0.00 0.00 0.000
5:15pm 286 2 8 38 39 74.2 68.8 29.28 68.8 593 6485 1386 0.29 0.00 0.00 0.000
5:16pm 220 4 8 38 38 74.2 68.7 29.28 68.7 593 6651 1379 0.19 0.00 0.00 0.000
5:17pm 264 2 8 38 38 74.2 68.8 29.29 68.8 592 6654 1384 0.28 0.00 0.00 0.000
5:18pm 354 3 8 38 39 74.2 68.8 29.28 68.8 593 6485 1386 0.28 0.00 0.00 0.000
5:19pm 341 4 8 38 39 74.2 68.8 29.28 68.8 593 6485 1386 0.28 0.00 0.00 0.000
5:20pm 345 3 8 38 39 74.2 68.8 29.28 68.8 593 6485 1386 0.27 0.00 0.00 0.000
5:21pm 257 4 7 38 38 74.2 68.9 29.28 68.9 593 6657 1392 0.36 0.00 0.00 0.000
5:22pm 323 5 7 38 38 74.2 68.9 29.28 68.9 593 6657 1392 0.36 0.00 0.00 0.000
5:23pm 329 3 7 38 38 74.2 68.8 29.29 68.8 592 6654 1384 0.25 0.00 0.00 0.000
5:24pm 293 3 7 38 37 74.2 68.8 29.29 68.8 590 6827 1382 0.25 0.00 0.00 0.000
5:25pm 327 2 7 38 38 74.2 68.8 29.29 68.8 590 6654 1382 0.25 0.00 0.00 0.000
5:26pm 283 5 6 38 38 74.2 68.7 29.29 68.7 591 6651 1377 0.14 0.00 0.00 0.000
5:27pm 265 4 6 38 41 74.2 68.7 29.29 68.7 590 6156 1376 0.14 0.00 0.00 0.000
5:28pm 355 2 6 38 40 74.2 68.6 29.29 68.6 589 6315 1368 0.04 0.00 0.00 0.000
5:29pm 354 3 6 38 38 74.2 68.5 29.29 68.5 590 6646 1363 -0.06 0.00 0.00 0.000
5:30pm 300 2 6 38 38 74.2 68.4 29.29 68.4 590 6643 1357 -0.16 0.00 0.00 0.000
5:31pm 300 0 2 38 39 74.2 68.4 29.29 68.4 591 6475 1358 -0.16 0.00 0.00 0.000
5:32pm 291 2 2 40 38 74.2 68.3 29.29 68.3 591 6640 1351 -0.25 0.00 0.00 0.000
5:33pm 291 0 2 38 39 74.2 68.3 29.29 68.3 591 6472 1351 -0.25 0.00 0.00 0.000
5:34pm 265 2 4 38 41 74.2 68.3 29.29 68.3 592 6146 1352 -0.24 0.00 0.00 0.000
5:35pm 270 2 5 38 40 74.2 68.2 29.29 68.2 591 6305 1345 -0.34 0.00 0.00 0.000
5:36pm 270 1 3 38 38 74.2 68.1 29.29 68.1 591 6635 1338 -0.43 0.00 0.00 0.000
5:37pm 266 4 4 38 38 74.2 68.0 29.29 68.0 591 6632 1332 -0.52 0.00 0.00 0.000
5:38pm 236 1 4 38 38 74.3 67.9 29.29 67.9 591 6629 1326 -0.61 0.00 0.00 0.000
5:39pm 167 2 4 38 39 74.3 67.9 29.29 67.9 590 6461 1324 -0.60 0.00 0.00 0.000
5:40pm 239 3 4 38 40 74.3 67.9 29.29 67.9 590 6297 1324 -0.59 0.00 0.00 0.000
5:41pm 343 0 4 38 41 74.3 67.9 29.29 67.9 591 6136 1326 -0.58 0.00 0.00 0.000
5:42pm 343 1 4 38 43 74.3 67.8 29.29 67.8 591 5822 1319 -0.67 0.00 0.00 0.000
5:43pm 343 0 4 38 43 74.3 67.7 29.29 67.7 592 5820 1314 -0.76 0.00 0.00 0.000
5:44pm 343 0 4 38 41 74.3 67.7 29.29 67.7 592 6131 1314 -0.75 0.00 0.00 0.000
5:45pm 343 1 4 38 42 74.3 67.7 29.29 67.7 591 5974 1313 -0.74 0.00 0.00 0.000
5:46pm 346 1 2 38 42 74.3 67.7 29.29 67.7 592 5974 1314 -0.72 0.00 0.00 0.000
5:47pm 185 2 5 38 40 74.3 67.6 29.29 67.6 592 6289 1307 -0.81 0.00 0.00 0.000
5:48pm 185 0 5 38 41 74.3 67.6 29.29 67.6 592 6128 1307 -0.80 0.00 0.00 0.000
5:49pm 185 2 5 38 43 74.3 67.6 29.29 67.6 592 5817 1307 -0.78 0.00 0.00 0.000
5:50pm 185 2 5 38 41 74.3 67.5 29.28 67.5 593 6126 1302 -0.87 0.00 0.00 0.000
5:51pm 185 0 3 38 41 74.3 67.4 29.29 67.4 592 6123 1295 -0.96 0.00 0.00 0.000
5:52pm 185 1 3 38 42 74.3 67.4 29.29 67.4 591 5966 1294 -0.94 0.00 0.00 0.000
5:53pm 185 2 3 38 42 74.3 67.4 29.29 67.4 592 5966 1295 -0.93 0.00 0.00 0.000
5:54pm 185 0 3 38 42 74.3 67.3 29.29 67.3 591 5964 1287 -1.01 0.00 0.00 0.000
5:55pm 185 3 3 38 41 74.3 67.2 29.29 67.2 591 6118 1281 -1.09 0.00 0.00 0.000
5:56pm 185 2 3 38 41 74.3 67.2 29.29 67.2 591 6118 1281 -1.07 0.00 0.00 0.000
5:57pm 185 0 3 38 45 74.3 67.2 29.29 67.2 592 5509 1282 -1.06 0.00 0.00 0.000
5:58pm 185 0 3 38 42 74.3 67.2 29.29 67.2 592 5961 1282 -1.04 0.00 0.00 0.000
5:59pm 185 2 3 38 40 74.3 67.1 29.29 67.1 592 6276 1275 -1.12 0.00 0.00 0.000
6:00pm 185 3 4 38 44 74.3 67.1 29.29 67.1 592 5654 1275 -1.10 0.00 0.00 0.000
6:01pm 165 1 3 38 40 74.3 67.1 29.29 67.1 592 6276 1275 -1.09 0.00 0.00 0.000
6:02pm 165 1 3 38 42 74.3 67.1 29.29 67.1 591 5959 1274 -1.07 0.00 0.00 0.000
6:03pm 165 2 3 38 46 74.3 67.1 29.29 67.1 590 5362 1273 -1.05 0.00 0.00 0.000
6:04pm 127 3 4 38 43 74.3 67.0 29.29 67.0 592 5803 1269 -1.13 0.00 0.00 0.000
6:05pm 214 2 4 38 41 74.3 67.0 29.29 67.0 592 6113 1269 -1.11 0.00 0.00 0.000
6:06pm 293 0 5 38 45 74.3 67.0 29.29 67.0 592 5505 1269 -1.09 0.00 0.00 0.000
6:07pm 293 1 5 38 45 74.3 67.0 29.29 67.0 591 5505 1268 -1.08 0.00 0.00 0.000
6:08pm 266 4 5 38 45 74.3 66.9 29.29 66.9 592 5502 1263 -1.16 0.00 0.00 0.000
6:09pm 267 1 5 38 46 74.3 66.9 29.29 66.9 591 5358 1261 -1.14 0.00 0.00 0.000
6:10pm 13 1 5 38 46 74.3 66.9 29.29 66.9 592 5358 1263 -1.12 0.00 0.00 0.000
6:11pm 13 1 2 38 44 74.3 66.8 29.29 66.8 591 5647 1255 -1.20 0.00 0.00 0.000
6:12pm 13 1 2 38 44 74.3 66.8 29.29 66.8 591 5647 1255 -1.18 0.00 0.00 0.000
6:13pm 12 0 3 38 42 74.3 66.8 29.29 66.8 591 5951 1255 -1.16 0.00 0.00 0.000
6:14pm 13 0 3 38 42 74.3 66.8 29.29 66.8 592 5951 1256 -1.14 0.00 0.00 0.000
6:15pm 13 0 3 38 43 74.3 66.8 29.29 66.8 591 5798 1255 -1.12 0.00 0.00 0.000
6:16pm 13 0 0 38 45 74.3 66.8 29.29 66.8 591 5500 1255 -1.10 0.00 0.00 0.000
6:17pm 13 0 0 38 45 74.3 66.8 29.29 66.8 590 5500 1254 -1.08 0.00 0.00 0.000
6:18pm 13 0 1 38 45 74.3 66.8 29.29 66.8 589 5500 1253 -1.07 0.00 0.00 0.000
6:19pm 350 2 3 38 41 74.3 66.8 29.29 66.8 589 6108 1253 -1.05 0.00 0.00 0.000
6:20pm 351 0 3 38 45 74.3 66.8 29.29 66.8 589 5500 1253 -1.03 0.00 0.00 0.000
6:21pm 351 0 1 38 46 74.3 66.8 29.29 66.8 589 5356 1253 -1.01 0.00 0.00 0.000
6:22pm 351 0 1 38 44 74.3 66.8 29.29 66.8 589 5647 1253 -1.00 0.00 0.00 0.000
6:23pm 351 0 1 38 45 74.3 66.8 29.29 66.8 589 5500 1253 -0.98 0.00 0.00 0.000
6:24pm 351 1 1 38 45 74.3 66.8 29.29 66.8 588 5500 1252 -0.96 0.00 0.00 0.000
6:25pm 351 0 1 38 42 74.3 66.7 29.29 66.7 589 5949 1246 -1.05 0.00 0.00 0.000
6:26pm 351 1 2 38 44 74.3 66.8 29.29 66.8 589 5647 1253 -0.93 0.00 0.00 0.000
6:27pm 351 0 2 38 44 74.3 66.7 29.29 66.7 589 5645 1246 -1.02 0.00 0.00 0.000
6:28pm 351 0 2 38 44 74.3 66.7 29.29 66.7 590 5645 1247 -1.00 0.00 0.00 0.000
6:29pm 272 0 2 38 42 74.3 66.7 29.29 66.7 590 5949 1247 -0.98 0.00 0.00 0.000
6:30pm 272 1 2 38 44 74.3 66.7 29.29 66.7 589 5645 1246 -0.97 0.00 0.00 0.000
6:31pm 271 2 3 38 44 74.3 66.7 29.29 66.7 589 5645 1246 -0.95 0.00 0.00 0.000
6:32pm 271 1 3 38 44 74.3 66.7 29.29 66.7 589 5645 1246 -0.93 0.00 0.00 0.000
6:33pm 179 4 5 38 43 74.3 66.6 29.29 66.6 590 5793 1241 -1.02 0.00 0.00 0.000
6:34pm 160 2 5 38 43 74.3 66.6 29.29 66.6 591 5793 1242 -1.00 0.00 0.00 0.000
6:35pm 199 1 5 38 43 74.3 66.6 29.29 66.6 591 5793 1242 -0.98 0.00 0.00 0.000
6:36pm 199 0 1 38 46 74.3 66.5 29.29 66.5 590 5349 1235 -1.07 0.00 0.00 0.000
6:37pm 199 0 1 38 46 74.3 66.5 29.29 66.5 590 5349 1235 -1.05 0.00 0.00 0.000
6:38pm 199 0 1 38 46 74.3 66.5 29.29 66.5 591 5349 1236 -1.03 0.00 0.00 0.000
6:39pm 199 0 2 38 43 74.3 66.5 29.29 66.5 591 5791 1236 -1.02 0.00 0.00 0.000
6:40pm 199 0 2 38 45 74.3 66.4 29.29 66.4 591 5491 1229 -1.10 0.00 0.00 0.000
6:41pm 199 0 0 38 47 74.3 66.4 29.29 66.4 591 5205 1229 -1.08 0.00 0.00 0.000
6:42pm 199 0 0 38 45 74.3 66.4 29.29 66.4 591 5491 1229 -1.06 0.00 0.00 0.000
6:43pm 199 0 0 38 44 74.3 66.3 29.29 66.3 591 5636 1223 -1.14 0.00 0.00 0.000
6:44pm 199 0 0 38 48 74.3 66.3 29.29 66.3 590 5064 1222 -1.12 0.00 0.00 0.000
6:45pm 199 0 2 38 46 74.3 66.2 29.29 66.2 589 5342 1214 -1.20 0.00 0.00 0.000
6:46pm 199 0 0 38 46 74.3 66.2 29.29 66.2 588 5342 1213 -1.18 0.00 0.00 0.000
6:47pm 199 0 0 38 47 74.3 66.1 29.29 66.1 589 5199 1208 -1.26 0.00 0.00 0.000
6:48pm 199 0 1 38 46 74.3 66.1 29.29 66.1 589 5340 1208 -1.24 0.00 0.00 0.000
6:49pm 199 0 1 38 46 74.3 66.1 29.29 66.1 589 5340 1208 -1.22 0.00 0.00 0.000
6:50pm 199 0 1 38 47 74.3 66.0 29.29 66.0 589 5196 1201 -1.30 0.00 0.00 0.000
6:51pm 199 0 0 38 47 74.3 66.0 29.29 66.0 589 5196 1201 -1.28 0.00 0.00 0.000
6:52pm 199 0 0 38 47 74.3 66.0 29.29 66.0 588 5196 1200 -1.26 0.00 0.00 0.000
6:53pm 199 0 0 38 46 74.3 65.9 29.29 65.9 589 5336 1195 -1.34 0.00 0.00 0.000
6:54pm 199 0 0 38 48 74.3 65.9 29.29 65.9 587 5056 1192 -1.31 0.00 0.00 0.000
6:55pm 199 0 0 38 47 74.3 65.9 29.29 65.9 588 5194 1194 -1.29 0.00 0.00 0.000
6:56pm 199 0 0 38 46 74.3 65.8 29.29 65.8 587 5333 1186 -1.37 0.00 0.00 0.000
6:57pm 199 0 1 38 48 74.5 65.8 29.29 65.8 586 5054 1185 -1.35 0.00 0.00 0.000
6:58pm 199 0 1 38 48 74.5 65.8 29.29 65.8 586 5054 1185 -1.32 0.00 0.00 0.000
6:59pm 199 0 1 38 48 74.5 65.8 29.29 65.8 584 5054 1183 -1.30 0.00 0.00 0.000
7:00pm 199 0 1 38 48 74.5 65.7 29.29 65.7 584 5051 1175 -1.38 0.00 0.00 0.000
7:01pm 199 0 0 38 47 74.5 65.6 29.29 65.6 584 5188 1169 -1.46 0.00 0.00 0.000
7:02pm 199 0 0 38 47 74.5 65.6 29.29 65.6 584 5188 1169 -1.43 0.00 0.00 0.000
7:03pm 199 0 0 38 46 74.5 65.6 29.29 65.6 584 5329 1169 -1.41 0.00 0.00 0.000
7:04pm 199 0 0 38 46 74.5 65.6 29.29 65.6 584 5329 1169 -1.39 0.00 0.00 0.000
7:05pm 199 0 0 38 47 74.5 65.5 29.29 65.5 584 5186 1162 -1.46 0.00 0.00 0.000
7:06pm 199 0 0 38 47 74.5 65.5 29.30 65.5 582 5186 1160 -1.44 0.00 0.00 0.000
7:07pm 199 0 0 38 47 74.5 65.5 29.30 65.5 582 5186 1160 -1.42 0.00 0.00 0.000
7:08pm 199 0 0 38 47 74.5 65.4 29.30 65.4 581 5183 1152 -1.49 0.00 0.00 0.000
7:09pm 199 0 0 38 47 74.5 65.4 29.30 65.4 581 5183 1152 -1.47 0.00 0.00 0.000
7:10pm 199 0 0 38 47 74.5 65.4 29.30 65.4 581 5183 1152 -1.44 0.00 0.00 0.000
7:11pm 199 0 0 38 47 74.5 65.4 29.30 65.4 581 5183 1152 -1.42 0.00 0.00 0.000
7:12pm 199 0 0 38 47 74.5 65.2 29.30 65.2 581 5179 1139 -1.59 0.00 0.00 0.000
7:13pm 199 0 0 38 46 74.5 65.2 29.30 65.2 580 5320 1138 -1.57 0.00 0.00 0.000
7:14pm 199 0 0 38 47 74.5 65.2 29.30 65.2 581 5179 1139 -1.54 0.00 0.00 0.000
7:15pm 199 0 0 38 46 74.5 65.2 29.30 65.2 581 5320 1139 -1.51 0.00 0.00 0.000
7:16pm 199 0 0 38 46 74.5 65.1 29.30 65.1 580 5318 1132 -1.59 0.00 0.00 0.000
7:17pm 199 0 0 38 46 74.5 65.1 29.30 65.1 580 5318 1132 -1.56 0.00 0.00 0.000
7:18pm 199 0 1 38 46 74.5 65.0 29.30 65.0 580 5315 1125 -1.63 0.00 0.00 0.000
7:19pm 199 0 1 38 46 74.5 64.9 29.30 64.9 580 5313 1119 -1.71 0.00 0.00 0.000
7:20pm 199 0 1 38 46 74.5 64.9 29.30 64.9 580 5313 1119 -1.68 0.00 0.00 0.000
7:21pm 199 0 0 38 47 74.5 64.9 29.30 64.9 580 5173 1119 -1.65 0.00 0.00 0.000
7:22pm 199 0 0 38 46 74.5 64.9 29.30 64.9 579 5313 1118 -1.62 0.00 0.00 0.000
7:23pm 199 0 0 38 46 74.5 64.9 29.30 64.9 579 5313 1118 -1.60 0.00 0.00 0.000
7:24pm 199 0 0 38 47 74.5 64.8 29.30 64.8 579 5170 1111 -1.67 0.00 0.00 0.000
7:25pm 199 0 0 38 47 74.5 64.8 29.30 64.8 580 5170 1112 -1.64 0.00 0.00 0.000
7:26pm 199 0 0 38 48 74.5 64.8 29.30 64.8 580 5032 1112 -1.62 0.00 0.00 0.000
7:27pm 199 0 0 38 49 74.5 64.8 29.30 64.8 580 4897 1112 -1.59 0.00 0.00 0.000
7:28pm 199 0 0 38 49 74.5 64.8 29.30 64.8 580 4897 1112 -1.56 0.00 0.00 0.000
7:29pm 199 0 0 38 49 74.5 64.7 29.30 64.7 580 4895 1106 -1.64 0.00 0.00 0.000
7:30pm 199 0 0 40 49 74.5 64.7 29.30 64.7 581 4895 1107 -1.61 0.00 0.00 0.000
7:31pm 199 0 0 38 49 74.5 64.7 29.30 64.7 581 4895 1107 -1.58 0.00 0.00 0.000
7:32pm 199 0 0 38 49 74.5 64.6 29.30 64.6 581 4893 1101 -1.66 0.00 0.00 0.000
7:33pm 199 0 0 38 48 74.5 64.6 29.30 64.6 581 5028 1101 -1.63 0.00 0.00 0.000
7:34pm 199 0 0 38 49 74.5 64.5 29.30 64.5 581 4891 1094 -1.70 0.00 0.00 0.000
7:35pm 199 0 0 38 49 74.5 64.5 29.30 64.5 581 4891 1094 -1.67 0.00 0.00 0.000
7:36pm 199 0 0 38 49 74.5 64.5 29.30 64.5 581 4891 1094 -1.64 0.00 0.00 0.000
7:37pm 199 0 0 38 49 74.5 64.5 29.30 64.5 580 4891 1093 -1.62 0.00 0.00 0.000
7:38pm 199 0 0 38 49 74.5 64.4 29.30 64.4 580 4889 1086 -1.69 0.00 0.00 0.000
7:39pm 199 0 0 38 49 74.5 64.5 29.30 64.5 580 4891 1093 -1.57 0.00 0.00 0.000
7:40pm 199 0 0 38 49 74.5 64.4 29.30 64.4 580 4889 1086 -1.64 0.00 0.00 0.000
7:41pm 199 0 0 38 49 74.5 64.4 29.30 64.4 580 4889 1086 -1.61 0.00 0.00 0.000
7:42pm 199 0 0 38 50 74.5 64.4 29.30 64.4 580 4756 1086 -1.58 0.00 0.00 0.000
7:43pm 199 0 0 38 50 74.5 64.4 29.30 64.4 580 4756 1086 -1.56 0.00 0.00 0.000
7:44pm 199 0 0 38 50 74.5 64.3 29.30 64.3 580 4754 1080 -1.63 0.00 0.00 0.000
7:45pm 199 0 0 38 50 74.5 64.3 29.30 64.3 580 4754 1080 -1.60 0.00 0.00 0.000
7:46pm 199 0 0 38 50 74.5 64.3 29.30 64.3 580 4754 1080 -1.58 0.00 0.00 0.000
7:47pm 199 0 0 38 51 74.5 64.2 29.30 64.2 579 4622 1072 -1.65 0.00 0.00 0.000
7:48pm 199 0 0 38 51 74.5 64.2 29.30 64.2 579 4622 1072 -1.62 0.00 0.00 0.000
7:49pm 199 0 0 38 50 74.5 64.2 29.30 64.2 579 4752 1072 -1.59 0.00 0.00 0.000
7:50pm 199 0 0 38 50 74.5 64.0 29.30 64.0 578 4748 1058 -1.77 0.00 0.00 0.000
7:51pm 199 0 0 38 53 74.5 64.0 29.30 64.0 578 4364 1058 -1.74 0.00 0.00 0.000
7:52pm 199 0 0 38 53 74.5 63.9 29.30 63.9 578 4362 1052 -1.81 0.00 0.00 0.000
7:53pm 199 0 0 38 54 74.5 63.9 29.30 63.9 577 4238 1051 -1.78 0.00 0.00 0.000
7:54pm 199 0 0 38 55 74.5 63.8 29.30 63.8 577 4115 1044 -1.85 0.00 0.00 0.000
7:55pm 199 0 0 38 56 74.5 63.7 29.30 63.7 578 3993 1039 -1.92 0.00 0.00 0.000
7:56pm 199 0 0 38 56 74.5 63.7 29.30 63.7 579 3993 1040 -1.89 0.00 0.00 0.000
7:57pm 199 0 0 38 57 74.5 63.6 29.30 63.6 579 3874 1034 -1.95 0.00 0.00 0.000
7:58pm 199 0 0 38 56 74.5 63.6 29.30 63.6 578 3991 1032 -1.92 0.00 0.00 0.000
7:59pm 199 0 0 38 57 74.5 63.5 29.30 63.5 578 3872 1026 -1.99 0.00 0.00 0.000
8:00pm 199 0 0 38 57 74.5 63.5 29.30 63.5 577 3872 1025 -1.96 0.00 0.00 0.000
8:01pm 145 0 0 38 59 74.7 63.4 29.30 63.4 577 3640 1018 -2.02 0.00 0.00 0.000
8:02pm 145 0 0 38 60 74.7 63.4 29.30 63.4 575 3528 1016 -1.99 0.00 0.00 0.000
8:03pm 147 0 0 38 60 74.7 63.3 29.30 63.3 576 3526 1011 -2.06 0.00 0.00 0.000
8:04pm 147 0 0 38 60 74.7 63.2 29.30 63.2 575 3525 1003 -2.12 0.00 0.00 0.000
8:05pm 147 0 0 38 61 74.7 63.2 29.30 63.2 574 3414 1002 -2.09 0.00 0.00 0.000
8:06pm 226 0 0 38 61 74.7 63.1 29.31 63.1 573 3413 994 -2.15 0.00 0.00 0.000
8:07pm 222 0 0 38 61 74.7 63.0 29.31 63.0 573 3411 988 -2.22 0.00 0.00 0.000
8:08pm 221 0 0 38 61 74.7 63.0 29.31 63.0 572 3411 987 -2.18 0.00 0.00 0.000
8:09pm 179 0 0 38 62 74.7 62.9 29.31 62.9 572 3301 980 -2.24 0.00 0.00 0.000
8:10pm 179 0 0 38 62 74.7 62.9 29.31 62.9 572 3301 979 -2.21 0.00 0.00 0.000
8:11pm 179 0 0 38 62 74.7 62.9 29.31 62.9 572 3301 979 -2.17 0.00 0.00 0.000
8:12pm 179 0 0 38 63 74.7 62.8 29.31 62.8 571 3192 971 -2.23 0.00 0.00 0.000
8:13pm 179 0 0 38 63 74.7 62.7 29.31 62.7 572 3191 966 -2.29 0.00 0.00 0.000
8:14pm 179 0 1 38 64 74.7 62.7 29.31 62.7 570 3085 964 -2.26 0.00 0.00 0.000
8:15pm 202 2 2 38 64 74.7 62.7 29.31 62.7 570 3085 964 -2.22 0.00 0.00 0.000
8:16pm 204 2 4 38 65 74.7 62.6 29.31 62.6 570 2979 957 -2.28 0.00 0.00 0.000
8:17pm 204 1 4 38 65 74.7 62.5 29.31 62.5 570 2978 951 -2.34 0.00 0.00 0.000
8:18pm 204 3 4 38 65 74.7 62.4 29.31 62.4 569 2976 943 -2.40 0.00 0.00 0.000
8:19pm 204 2 4 38 66 74.7 62.4 29.31 62.4 569 2874 943 -2.36 0.00 0.00 0.000
8:20pm 204 1 4 38 65 74.7 62.4 29.31 62.4 568 2976 942 -2.32 0.00 0.00 0.000
8:21pm 210 2 3 38 65 74.7 62.3 29.31 62.3 568 2975 935 -2.38 0.00 0.00 0.000
8:22pm 202 3 3 38 65 74.7 62.3 29.31 62.3 568 2975 935 -2.34 0.00 0.00 0.000
8:23pm 199 1 4 38 66 74.7 62.2 29.31 62.2 568 2871 929 -2.40 0.00 0.00 0.000
8:24pm 199 0 4 38 65 74.7 62.1 29.31 62.1 567 2973 921 -2.47 0.00 0.00 0.000
8:25pm 194 1 4 38 65 74.7 62.1 29.31 62.1 567 2973 921 -2.42 0.00 0.00 0.000
8:26pm 173 3 5 38 67 74.7 62.0 29.31 62.0 566 2767 914 -2.48 0.00 0.00 0.000
8:27pm 178 0 5 38 67 74.7 62.0 29.31 62.0 566 2767 914 -2.44 0.00 0.00 0.000
8:28pm 178 0 5 38 66 74.7 61.9 29.31 61.9 566 2867 907 -2.50 0.00 0.00 0.000
8:29pm 178 0 5 38 67 74.7 61.9 29.31 61.9 565 2766 906 -2.46 0.00 0.00 0.000
8:30pm 178 0 5 38 67 74.7 61.8 29.31 61.8 565 2765 900 -2.52 0.00 0.00 0.000
8:31pm 178 2 3 38 67 74.7 61.9 29.31 61.9 565 2766 906 -2.38 0.00 0.00 0.000
8:32pm 178 0 3 38 68 74.7 61.8 29.32 61.8 563 2665 897 -2.43 0.00 0.00 0.000
8:33pm 178 1 3 38 68 74.7 61.8 29.32 61.8 563 2665 897 -2.40 0.00 0.00 0.000
8:34pm 178 1 3 38 68 74.7 61.7 29.32 61.7 562 2664 890 -2.46 0.00 0.00 0.000
8:35pm 178 0 4 38 68 74.7 61.7 29.32 61.7 562 2664 890 -2.42 0.00 0.00 0.000
8:36pm 178 3 3 38 68 74.7 61.7 29.32 61.7 561 2664 888 -2.38 0.00 0.00 0.000
8:37pm 178 4 4 38 69 74.7 61.7 29.32 61.7 561 2565 888 -2.34 0.00 0.00 0.000
8:38pm 187 3 7 38 69 74.7 61.6 29.32 61.6 561 2564 882 -2.40 0.00 0.00 0.000
8:39pm 189 3 7 38 69 74.7 61.6 29.32 61.6 560 2564 881 -2.36 0.00 0.00 0.000
8:40pm 166 3 7 38 69 74.9 61.5 29.32 61.5 560 2563 874 -2.42 0.00 0.00 0.000
8:41pm 154 3 5 38 69 74.9 61.5 29.32 61.5 560 2563 873 -2.38 0.00 0.00 0.000
8:42pm 198 2 5 38 69 74.9 61.5 29.32 61.5 560 2563 873 -2.34 0.00 0.00 0.000
8:43pm 198 1 5 38 69 74.9 61.5 29.32 61.5 559 2563 872 -2.30 0.00 0.00 0.000
8:44pm 198 0 5 38 69 74.9 61.5 29.32 61.5 559 2563 872 -2.26 0.00 0.00 0.000
8:45pm 196 2 5 38 69 74.9 61.5 29.32 61.5 558 2563 871 -2.22 0.00 0.00 0.000
8:46pm 186 3 4 38 69 74.9 61.4 29.32 61.4 558 2562 864 -2.29 0.00 0.00 0.000
8:47pm 183 2 4 38 69 74.9 61.4 29.32 61.4 558 2562 864 -2.25 0.00 0.00 0.000
8:48pm 183 1 4 38 69 74.9 61.3 29.32 61.3 557 2561 857 -2.31 0.00 0.00 0.000
8:49pm 183 2 4 38 69 74.9 61.3 29.32 61.3 556 2561 856 -2.27 0.00 0.00 0.000
8:50pm 167 0 6 38 69 74.9 61.3 29.32 61.3 557 2561 857 -2.24 0.00 0.00 0.000
8:51pm 167 4 4 38 69 74.9 61.3 29.32 61.3 556 2561 856 -2.20 0.00 0.00 0.000
8:52pm 167 3 5 38 69 74.9 61.2 29.32 61.2 557 2560 850 -2.26 0.00 0.00 0.000
8:53pm 167 1 5 38 69 74.9 61.2 29.32 61.2 557 2560 850 -2.22 0.00 0.00 0.000
8:54pm 167 1 5 38 69 74.9 61.2 29.32 61.2 556 2560 849 -2.19 0.00 0.00 0.000
8:55pm 167 4 5 38 69 74.9 61.1 29.32 61.1 555 2559 841 -2.25 0.00 0.00 0.000
8:56pm 147 2 6 38 69 74.9 61.2 29.32 61.2 555 2560 848 -2.12 0.00 0.00 0.000
8:57pm 147 0 6 38 69 74.9 61.1 29.33 61.1 554 2559 840 -2.18 0.00 0.00 0.000
8:58pm 147 1 6 38 69 74.9 61.1 29.33 61.1 554 2559 840 -2.14 0.00 0.00 0.000
8:59pm 222 2 6 38 69 74.9 61.0 29.33 61.0 553 2558 833 -2.21 0.00 0.00 0.000
9:00pm 181 4 6 38 69 74.9 61.0 29.33 61.0 553 2558 833 -2.17 0.00 0.00 0.000
9:01pm 166 4 5 38 69 74.9 60.9 29.33 60.9 551 2557 824 -2.23 0.00 0.00 0.000
9:02pm 147 3 5 38 69 74.9 60.9 29.33 60.9 551 2557 824 -2.20 0.00 0.00 0.000
9:03pm 170 2 5 38 70 74.9 60.9 29.33 60.9 551 2459 824 -2.16 0.00 0.00 0.000
9:04pm 170 0 5 38 69 74.9 60.9 29.33 60.9 551 2557 824 -2.13 0.00 0.00 0.000
9:05pm 170 4 5 38 70 74.9 60.9 29.33 60.9 550 2459 823 -2.09 0.00 0.00 0.000
9:06pm 139 1 5 38 69 74.9 60.9 29.33 60.9 550 2557 823 -2.06 0.00 0.00 0.000
9:07pm 206 2 5 38 70 74.9 60.9 29.33 60.9 550 2459 823 -2.02 0.00 0.00 0.000
9:08pm 216 2 5 38 69 74.9 60.8 29.33 60.8 550 2555 816 -2.09 0.00 0.00 0.000
9:09pm 174 4 5 38 70 74.9 60.8 29.33 60.8 550 2458 816 -2.06 0.00 0.00 0.000
9:10pm 176 2 5 38 69 74.9 60.8 29.33 60.8 550 2555 816 -2.02 0.00 0.00 0.000
9:11pm 176 0 2 38 69 74.9 60.8 29.33 60.8 550 2555 816 -1.99 0.00 0.00 0.000
9:12pm 176 0 3 38 70 75.0 60.8 29.33 60.8 549 2458 815 -1.95 0.00 0.00 0.000
9:13pm 176 2 3 38 70 74.9 60.7 29.33 60.7 548 2457 807 -2.02 0.00 0.00 0.000
9:14pm 176 1 3 38 69 74.9 60.7 29.33 60.7 548 2554 807 -1.99 0.00 0.00 0.000
9:15pm 176 3 4 38 69 74.9 60.7 29.33 60.7 547 2554 805 -1.95 0.00 0.00 0.000
9:16pm 176 1 5 38 69 74.9 60.7 29.33 60.7 546 2554 804 -1.92 0.00 0.00 0.000
9:17pm 176 1 5 38 69 74.9 60.6 29.33 60.6 546 2553 797 -1.99 0.00 0.00 0.000
9:18pm 176 2 5 38 69 74.9 60.6 29.34 60.6 545 2553 796 -1.96 0.00 0.00 0.000
9:19pm 176 2 5 38 69 74.9 60.7 29.33 60.7 546 2554 804 -1.83 0.00 0.00 0.000
9:20pm 176 3 5 38 69 74.9 60.6 29.34 60.6 545 2553 796 -1.90 0.00 0.00 0.000
9:21pm 176 1 3 38 69 74.9 60.6 29.34 60.6 545 2553 796 -1.87 0.00 0.00 0.000
9:22pm 176 2 3 39 69 74.9 60.6 29.34 60.6 545 2553 796 -1.84 0.00 0.00 0.000
9:23pm 176 2 3 38 69 74.9 60.6 29.34 60.6 545 2553 796 -1.80 0.00 0.00 0.000
9:24pm 176 0 3 38 69 74.9 60.6 29.34 60.6 545 2553 796 -1.78 0.00 0.00 0.000
9:25pm 176 2 3 38 69 74.9 60.6 29.33 60.6 546 2553 797 -1.75 0.00 0.00 0.000
9:26pm 176 2 4 38 69 75.0 60.6 29.34 60.6 545 2553 796 -1.72 0.00 0.00 0.000
9:27pm 176 2 4 38 69 75.0 60.5 29.33 60.5 547 2552 792 -1.79 0.00 0.00 0.000
9:28pm 176 0 4 38 70 75.0 60.5 29.33 60.5 547 2455 792 -1.76 0.00 0.00 0.000
9:29pm 176 0 4 38 69 75.0 60.5 29.33 60.5 547 2552 792 -1.73 0.00 0.00 0.000
9:30pm 176 3 5 38 69 75.0 60.5 29.33 60.5 547 2552 792 -1.70 0.00 0.00 0.000
9:31pm 169 6 6 38 69 75.0 60.5 29.33 60.2 547 2552 792 -1.67 0.00 0.00 0.000
9:32pm 172 1 6 38 69 75.0 60.4 29.33 60.4 547 2551 785 -1.74 0.00 0.00 0.000
9:33pm 172 3 6 38 69 75.0 60.5 29.33 60.5 548 2552 793 -1.61 0.00 0.00 0.000
9:34pm 172 2 6 38 69 75.0 60.4 29.33 60.4 548 2551 787 -1.69 0.00 0.00 0.000
9:35pm 172 1 6 38 69 75.0 60.5 29.33 60.5 548 2552 794 -1.56 0.00 0.00 0.000
9:36pm 172 1 2 38 69 75.0 60.5 29.33 60.5 548 2552 794 -1.53 0.00 0.00 0.000
9:37pm 172 0 2 38 70 75.0 60.4 29.33 60.4 548 2454 787 -1.61 0.00 0.00 0.000
9:38pm 172 0 2 38 70 75.0 60.4 29.33 60.4 548 2454 788 -1.58 0.00 0.00 0.000
9:39pm 172 1 2 38 70 75.0 60.4 29.33 60.4 548 2454 788 -1.56 0.00 0.00 0.000
9:40pm 172 1 2 38 69 75.0 60.4 29.33 60.4 548 2551 788 -1.53 0.00 0.00 0.000
9:41pm 172 1 1 38 69 75.0 60.3 29.33 60.3 548 2550 781 -1.60 0.00 0.00 0.000
9:42pm 172 1 3 38 69 75.0 60.3 29.33 60.3 548 2550 780 -1.58 0.00 0.00 0.000
9:43pm 172 1 3 38 69 75.0 60.3 29.33 60.3 548 2550 780 -1.55 0.00 0.00 0.000
9:44pm 172 1 3 38 70 75.0 60.3 29.33 60.3 548 2453 780 -1.52 0.00 0.00 0.000
9:45pm 172 2 3 38 69 75.0 60.2 29.33 60.2 547 2549 772 -1.60 0.00 0.00 0.000
9:46pm 172 2 2 38 70 75.0 60.2 29.33 60.2 548 2452 774 -1.57 0.00 0.00 0.000
9:47pm 172 0 2 38 70 75.0 60.1 29.33 60.1 548 2451 767 -1.65 0.00 0.00 0.000
9:48pm 172 0 2 38 70 75.0 60.1 29.33 60.1 548 2451 767 -1.62 0.00 0.00 0.000
9:49pm 172 0 2 38 70 75.0 60.1 29.33 60.1 547 2451 766 -1.59 0.00 0.00 0.000
9:50pm 172 0 2 38 70 75.0 60.1 29.33 60.1 548 2451 767 -1.56 0.00 0.00 0.000
9:51pm 172 0 0 38 70 75.0 60.0 29.33 60.0 548 2450 760 -1.64 0.00 0.00 0.000
9:52pm 188 4 4 38 71 75.0 60.0 29.33 60.0 548 2355 760 -1.61 0.00 0.00 0.000
9:53pm 189 3 4 38 70 75.0 60.0 29.33 60.0 548 2450 760 -1.59 0.00 0.00 0.000
9:54pm 189 0 4 38 70 75.0 59.9 29.33 59.9 548 2449 754 -1.66 0.00 0.00 0.000
9:55pm 189 0 4 38 71 75.0 59.9 29.33 59.9 548 2354 755 -1.63 0.00 0.00 0.000
9:56pm 189 0 2 38 71 75.0 59.9 29.33 59.9 548 2354 754 -1.60 0.00 0.00 0.000
9:57pm 189 1 2 38 71 75.0 59.9 29.33 59.9 547 2354 753 -1.58 0.00 0.00 0.000
9:58pm 189 2 3 38 71 75.0 59.9 29.33 59.9 547 2354 753 -1.55 0.00 0.00 0.000
9:59pm 189 1 3 38 71 75.0 59.8 29.34 59.8 545 2353 744 -1.62 0.00 0.00 0.000
10:00pm 189 0 3 38 71 75.0 59.9 29.33 59.9 547 2354 753 -1.50 0.00 0.00 0.000
10:01pm 189 3 3 38 71 75.0 59.8 29.33 59.8 548 2353 747 -1.57 0.00 0.00 0.000
10:02pm 189 1 3 38 70 75.0 59.8 29.33 59.8 548 2448 747 -1.54 0.00 0.00 0.000
10:03pm 189 2 3 38 71 75.0 59.8 29.33 59.8 548 2353 747 -1.52 0.00 0.00 0.000
10:04pm 189 3 3 38 70 75.0 59.8 29.33 59.8 548 2448 747 -1.49 0.00 0.00 0.000
10:05pm 189 0 3 38 70 75.0 59.8 29.33 59.8 546 2448 745 -1.47 0.00 0.00 0.000
10:06pm 189 0 0 38 71 75.0 59.8 29.34 59.8 545 2353 744 -1.45 0.00 0.00 0.000
10:07pm 189 0 0 38 70 75.0 59.8 29.34 59.8 545 2448 744 -1.42 0.00 0.00 0.000
10:08pm 189 0 0 38 71 75.0 59.8 29.34 59.8 543 2353 742 -1.40 0.00 0.00 0.000
10:09pm 189 0 0 38 70 75.0 59.8 29.34 59.8 543 2448 742 -1.38 0.00 0.00 0.000
10:10pm 189 0 0 38 71 75.0 59.8 29.34 59.8 542 2353 741 -1.35 0.00 0.00 0.000
10:11pm 180 2 4 38 71 75.0 59.8 29.34 59.8 543 2353 742 -1.33 0.00 0.00 0.000
10:12pm 180 0 4 38 71 75.0 59.8 29.34 59.8 542 2353 741 -1.31 0.00 0.00 0.000
10:13pm 180 0 4 38 71 75.0 59.8 29.34 59.8 543 2353 742 -1.29 0.00 0.00 0.000
10:14pm 180 0 4 38 71 75.0 59.7 29.34 59.7 542 2352 734 -1.36 0.00 0.00 0.000
10:15pm 180 0 4 38 71 75.0 59.7 29.34 59.7 542 2352 734 -1.34 0.00 0.00 0.000
10:16pm 180 1 1 38 71 75.0 59.7 29.34 59.7 542 2352 734 -1.32 0.00 0.00 0.000
10:17pm 180 0 1 38 71 75.0 59.6 29.34 59.6 543 2351 729 -1.40 0.00 0.00 0.000
10:18pm 180 2 2 38 71 75.0 59.7 29.34 59.7 543 2352 735 -1.27 0.00 0.00 0.000
10:19pm 180 2 2 38 71 75.0 59.6 29.34 59.6 542 2351 727 -1.35 0.00 0.00 0.000
10:20pm 180 1 2 38 71 75.0 59.6 29.34 59.6 543 2351 729 -1.33 0.00 0.00 0.000
10:21pm 180 0 1 38 71 75.0 59.6 29.34 59.6 545 2351 731 -1.31 0.00 0.00 0.000
10:22pm 180 1 2 38 71 75.0 59.6 29.34 59.6 545 2351 731 -1.29 0.00 0.00 0.000
10:23pm 180 1 2 38 72 75.0 59.6 29.33 59.6 546 2256 732 -1.27 0.00 0.00 0.000
10:24pm 180 2 2 38 72 75.0 59.6 29.33 59.6 547 2256 733 -1.24 0.00 0.00 0.000
10:25pm 180 0 2 38 72 75.2 59.6 29.33 59.6 547 2256 733 -1.22 0.00 0.00 0.000
10:26pm 180 1 1 38 72 75.0 59.6 29.33 59.6 546 2256 732 -1.20 0.00 0.00 0.000
10:27pm 180 2 4 38 72 75.0 59.5 29.33 59.5 546 2255 725 -1.28 0.00 0.00 0.000
10:28pm 180 0 4 38 72 75.2 59.5 29.33 59.5 546 2255 725 -1.26 0.00 0.00 0.000
10:29pm 180 0 4 38 72 75.2 59.5 29.34 59.5 545 2255 724 -1.24 0.00 0.00 0.000
10:30pm 180 0 4 38 72 75.2 59.5 29.33 59.5 546 2255 725 -1.22 0.00 0.00 0.000
10:31pm 180 0 0 38 72 75.2 59.5 29.33 59.5 547 2255 727 -1.20 0.00 0.00 0.000
10:32pm 180 2 2 38 72 75.2 59.5 29.33 59.5 548 2255 728 -1.18 0.00 0.00 0.000
10:33pm 180 0 2 38 73 75.2 59.4 29.33 59.4 548 2162 721 -1.26 0.00 0.00 0.000
10:34pm 180 1 2 38 73 75.2 59.5 29.33 59.5 548 2162 728 -1.14 0.00 0.00 0.000
10:35pm 180 2 2 38 73 75.2 59.4 29.33 59.4 548 2162 721 -1.22 0.00 0.00 0.000
10:36pm 180 0 2 39 73 75.2 59.4 29.33 59.4 547 2162 720 -1.20 0.00 0.00 0.000
10:37pm 180 2 2 38 73 75.2 59.4 29.33 59.4 547 2162 720 -1.18 0.00 0.00 0.000
10:38pm 180 0 2 38 73 75.2 59.4 29.33 59.4 547 2162 720 -1.16 0.00 0.00 0.000
10:39pm 180 0 2 38 73 75.2 59.3 29.33 59.3 547 2161 714 -1.24 0.00 0.00 0.000
10:40pm 180 0 2 38 73 75.2 59.3 29.33 59.3 547 2161 714 -1.22 0.00 0.00 0.000
10:41pm 180 1 1 38 73 75.2 59.3 29.33 59.3 547 2161 714 -1.20 0.00 0.00 0.000
10:42pm 180 1 2 38 73 75.2 59.3 29.33 59.3 546 2161 712 -1.18 0.00 0.00 0.000
10:43pm 180 2 2 38 74 75.2 59.3 29.34 59.3 545 2069 711 -1.16 0.00 0.00 0.000
10:44pm 191 3 7 38 74 75.2 59.3 29.34 59.3 543 2069 709 -1.14 0.00 0.00 0.000
10:45pm 191 2 7 38 75 75.2 59.3 29.34 59.3 542 1978 708 -1.12 0.00 0.00 0.000
10:46pm 191 2 2 38 74 75.2 59.3 29.34 59.3 542 2069 708 -1.10 0.00 0.00 0.000
10:47pm 191 0 3 38 75 75.2 59.3 29.34 59.3 543 1978 709 -1.08 0.00 0.00 0.000
10:48pm 191 0 3 38 75 75.2 59.3 29.34 59.3 543 1978 709 -1.07 0.00 0.00 0.000
10:49pm 170 1 4 38 75 75.2 59.3 29.34 59.3 544 1978 710 -1.05 0.00 0.00 0.000
10:50pm 170 2 4 38 75 75.2 59.3 29.34 59.3 544 1978 710 -1.03 0.00 0.00 0.000
10:51pm 170 2 2 38 75 75.2 59.2 29.34 59.2 545 1977 705 -1.11 0.00 0.00 0.000
10:52pm 172 1 3 38 75 75.2 59.3 29.34 59.3 545 1978 711 -1.00 0.00 0.00 0.000
10:53pm 164 3 4 38 76 75.2 59.2 29.34 59.2 545 1888 705 -1.08 0.00 0.00 0.000
10:54pm 164 0 4 38 76 75.2 59.3 29.34 59.3 545 1889 711 -0.96 0.00 0.00 0.000
10:55pm 185 2 4 38 76 75.2 59.3 29.34 59.3 544 1889 710 -0.94 0.00 0.00 0.000
10:56pm 186 3 4 38 76 75.2 59.2 29.34 59.2 543 1888 702 -1.03 0.00 0.00 0.000
10:57pm 186 3 4 38 76 75.2 59.3 29.34 59.3 542 1889 708 -0.91 0.00 0.00 0.000
10:58pm 186 1 4 38 76 75.2 59.2 29.34 59.2 541 1888 700 -0.99 0.00 0.00 0.000
10:59pm 186 1 4 38 76 75.2 59.2 29.34 59.2 542 1888 701 -0.98 0.00 0.00 0.000
11:00pm 164 2 6 39 76 75.2 59.2 29.34 59.2 542 1888 701 -0.96 0.00 0.00 0.000
11:01pm 179 4 4 38 77 75.2 59.1 29.34 59.1 542 1798 695 -1.05 0.00 0.00 0.000
11:02pm 160 1 4 38 77 75.2 59.1 29.34 59.1 543 1798 696 -1.03 0.00 0.00 0.000
11:03pm 220 1 4 38 77 75.2 59.1 29.34 59.1 544 1798 697 -1.01 0.00 0.00 0.000
11:04pm 154 0 4 38 77 75.2 59.1 29.33 59.1 546 1798 699 -1.00 0.00 0.00 0.000
11:05pm 156 3 4 38 77 75.2 59.1 29.33 59.1 546 1798 699 -0.98 0.00 0.00 0.000
11:06pm 156 3 3 39 77 75.2 59.1 29.33 59.1 546 1798 699 -0.96 0.00 0.00 0.000
11:07pm 185 5 5 39 77 75.2 59.1 29.33 58.9 546 1798 699 -0.95 0.00 0.00 0.000
11:08pm 185 1 5 38 78 75.2 59.0 29.33 59.0 547 1710 694 -1.03 0.00 0.00 0.000
11:09pm 185 0 5 38 77 75.2 59.0 29.33 59.0 547 1798 694 -1.01 0.00 0.00 0.000
11:10pm 185 3 5 38 78 75.2 58.9 29.33 58.9 547 1709 687 -1.10 0.00 0.00 0.000
11:11pm 185 2 4 39 78 75.2 58.9 29.33 58.9 548 1709 688 -1.08 0.00 0.00 0.000
11:12pm 172 2 6 38 78 75.2 58.9 29.33 58.9 547 1709 687 -1.06 0.00 0.00 0.000
11:13pm 171 2 6 38 78 75.2 58.9 29.33 58.9 547 1709 687 -1.04 0.00 0.00 0.000
11:14pm 171 1 6 38 78 75.2 58.9 29.33 58.9 547 1709 687 -1.02 0.00 0.00 0.000
11:15pm 170 0 6 38 78 75.2 58.8 29.33 58.8 548 1709 682 -1.11 0.00 0.00 0.000
11:16pm 171 1 4 39 78 75.2 58.8 29.33 58.8 548 1709 683 -1.09 0.00 0.00 0.000
11:17pm 171 1 4 38 78 75.2 58.8 29.33 58.8 548 1709 683 -1.07 0.00 0.00 0.000
11:18pm 171 0 4 38 79 75.2 58.7 29.33 58.7 548 1622 676 -1.15 0.00 0.00 0.000
11:19pm 168 5 5 38 79 75.2 58.7 29.33 58.4 548 1622 676 -1.13 0.00 0.00 0.000
11:20pm 208 3 5 38 79 75.2 58.6 29.33 58.6 548 1621 670 -1.21 0.00 0.00 0.000
11:21pm 181 3 4 39 79 75.2 58.6 29.33 58.6 548 1621 670 -1.19 0.00 0.00 0.000
11:22pm 181 2 4 39 79 75.2 58.6 29.33 58.6 548 1621 670 -1.17 0.00 0.00 0.000
11:23pm 207 2 4 38 79 75.2 58.5 29.33 58.5 549 1620 664 -1.25 0.00 0.00 0.000
11:24pm 207 2 4 38 80 75.2 58.5 29.33 58.5 549 1535 664 -1.23 0.00 0.00 0.000
11:25pm 191 2 4 38 80 75.2 58.5 29.33 58.5 548 1535 663 -1.21 0.00 0.00 0.000
11:26pm 191 2 2 38 80 75.2 58.4 29.33 58.4 549 1534 658 -1.29 0.00 0.00 0.000
11:27pm 182 1 3 38 80 75.2 58.4 29.33 58.4 549 1534 658 -1.27 0.00 0.00 0.000
11:28pm 182 1 3 40 80 75.2 58.4 29.33 58.4 551 1534 660 -1.25 0.00 0.00 0.000
11:29pm 162 5 5 38 80 75.2 58.4 29.33 58.1 549 1534 658 -1.23 0.00 0.00 0.000
11:30pm 164 2 5 38 80 75.2 58.3 29.33 58.3 551 1534 654 -1.31 0.00 0.00 0.000
11:31pm 164 1 2 38 80 75.2 58.3 29.33 58.3 551 1534 654 -1.28 0.00 0.00 0.000
11:32pm 164 3 3 38 80 75.2 58.2 29.33 58.2 551 1533 647 -1.36 0.00 0.00 0.000
11:33pm 227 4 5 38 80 75.2 58.2 29.33 58.2 551 1533 647 -1.34 0.00 0.00 0.000
11:34pm 179 2 5 38 81 75.2 58.2 29.33 58.2 551 1449 647 -1.32 0.00 0.00 0.000
11:35pm 177 5 5 38 80 75.2 58.1 29.33 57.7 551 1532 641 -1.39 0.00 0.00 0.000
11:36pm 198 2 5 39 81 75.2 58.1 29.33 58.1 551 1448 641 -1.37 0.00 0.00 0.000
11:37pm 258 2 5 38 81 75.2 58.0 29.33 58.0 551 1447 634 -1.45 0.00 0.00 0.000
11:38pm 168 5 8 39 81 75.2 58.0 29.33 57.6 551 1447 634 -1.42 0.00 0.00 0.000
11:39pm 175 3 8 39 81 75.2 58.0 29.33 58.0 551 1447 634 -1.40 0.00 0.00 0.000
11:40pm 150 3 8 39 81 75.2 58.0 29.33 58.0 552 1447 635 -1.38 0.00 0.00 0.000
11:41pm 218 3 5 39 81 75.2 58.0 29.33 58.0 551 1447 634 -1.36 0.00 0.00 0.000
11:42pm 218 2 6 39 81 75.2 57.9 29.33 57.9 551 1447 627 -1.43 0.00 0.00 0.000
11:43pm 172 2 7 39 81 75.2 57.9 29.33 57.9 551 1447 627 -1.41 0.00 0.00 0.000
11:44pm 172 1 7 39 81 75.2 57.8 29.33 57.8 551 1446 621 -1.48 0.00 0.00 0.000
11:45pm 158 6 7 38 82 75.2 57.8 29.33 57.0 551 1363 621 -1.46 0.00 0.00 0.000
11:46pm 199 5 6 38 82 75.2 57.8 29.33 57.4 551 1363 621 -1.43 0.00 0.00 0.000
11:47pm 207 2 6 39 82 75.2 57.8 29.33 57.8 551 1363 621 -1.41 0.00 0.00 0.000
11:48pm 206 3 6 38 82 75.2 57.8 29.33 57.8 551 1363 621 -1.39 0.00 0.00 0.000
11:49pm 174 3 7 38 82 75.2 57.8 29.33 57.8 551 1363 621 -1.36 0.00 0.00 0.000
11:50pm 173 2 7 38 82 75.2 57.7 29.33 57.7 551 1362 614 -1.44 0.00 0.00 0.000
11:51pm 202 4 8 38 82 75.2 57.7 29.33 57.7 551 1362 614 -1.41 0.00 0.00 0.000
11:52pm 168 11 11 38 82 75.2 57.7 29.33 55.3 551 1362 614 -1.39 0.00 0.00 0.000
11:53pm 193 4 11 38 82 75.2 57.8 29.33 57.8 551 1363 621 -1.27 0.00 0.00 0.000
11:54pm 197 5 11 39 82 75.2 57.8 29.33 57.4 551 1363 621 -1.25 0.00 0.00 0.000
11:55pm 182 2 11 38 82 75.2 57.8 29.33 57.8 551 1363 621 -1.23 0.00 0.00 0.000
11:56pm 212 1 3 39 82 75.2 57.7 29.33 57.7 551 1362 614 -1.31 0.00 0.00 0.000
11:57pm 210 2 3 39 82 75.2 57.7 29.33 57.7 552 1362 615 -1.28 0.00 0.00 0.000
11:58pm 159 5 5 38 82 75.2 57.6 29.33 57.1 552 1362 609 -1.36 0.00 0.00 0.000
11:59pm 194 0 5 38 82 75.4 57.6 29.33 57.6 552 1362 609 -1.34 0.00 0.00 0.000
|
Data provided from: Mark Hofmann's Bel Air, MD Weather Station |